SAA264 FAOR-EDDM

Flight info

Callsign SAA264
Flight time 10h 6m
Altitude 31000
Route VASUR3A VASUR UQ41 EVIPI DCT ETMIT UM214 OKLAP/N0503F320 UM214 RAPOL UA607 UPARA/N0497F340 UA607 DIR UB730 RAKOM/N0487F360 UB730 DJA UA605 BARKA/N0485F350 UG362 EBA/N0478F370 UP161 TUC UM725 SIRVI/N0479F360 UG727 NIBEL DCT BETOT DCT SUMIR DCT NAXAV DCT SOTOV/N0438F240 T101 BETOS BETOS1B
Aircraft A346/H-SDE2E3FGHIJ3J4J5M1RWXY/LB1D1

Departure

Time 2026-05-05 08:39
Airport O.R. Tambo International Airport (FAOR)

Arrival

Time 2026-05-05 18:45
Airport Munich Airport (EDDM)
Time Latitude Longitude Altitude Speed Heading
2026-05-05 08:02 -26.13025 28.23371 5555 ft 0 kts 322°
2026-05-05 08:29 -26.13037 28.23381 5557 ft 4 kts 322°
2026-05-05 08:29 -26.13058 28.23399 5554 ft 4 kts 322°
2026-05-05 08:29 -26.13078 28.23417 5554 ft 4 kts 322°
2026-05-05 08:30 -26.13111 28.23453 5556 ft 4 kts 287°
2026-05-05 08:30 -26.13114 28.23478 5556 ft 4 kts 276°
2026-05-05 08:30 -26.13117 28.23506 5554 ft 3 kts 276°
2026-05-05 08:30 -26.13118 28.23510 5556 ft 0 kts 276°
2026-05-05 08:33 -26.13116 28.23493 5555 ft 5 kts 276°
2026-05-05 08:33 -26.13114 28.23454 5556 ft 6 kts 261°
2026-05-05 08:33 -26.13138 28.23414 5557 ft 6 kts 211°
2026-05-05 08:33 -26.13192 28.23406 5557 ft 10 kts 185°
2026-05-05 08:34 -26.13293 28.23395 5557 ft 18 kts 185°
2026-05-05 08:34 -26.13412 28.23377 5557 ft 17 kts 188°
2026-05-05 08:34 -26.13532 28.23360 5558 ft 19 kts 187°
2026-05-05 08:34 -26.13665 28.23344 5558 ft 21 kts 186°
2026-05-05 08:35 -26.13818 28.23325 5558 ft 24 kts 190°
2026-05-05 08:35 -26.13983 28.23275 5560 ft 28 kts 195°
2026-05-05 08:35 -26.14159 28.23220 5562 ft 26 kts 196°
2026-05-05 08:35 -26.14317 28.23217 5569 ft 21 kts 167°
2026-05-05 08:36 -26.14453 28.23254 5568 ft 20 kts 165°
2026-05-05 08:36 -26.14568 28.23291 5572 ft 14 kts 149°
2026-05-05 08:36 -26.14614 28.23380 5574 ft 13 kts 108°
2026-05-05 08:36 -26.14625 28.23420 5574 ft 2 kts 101°
2026-05-05 08:37 -26.14625 28.23429 5573 ft 0 kts 87°
2026-05-05 08:37 -26.14623 28.23435 5573 ft 3 kts 55°
2026-05-05 08:37 -26.14595 28.23449 5573 ft 3 kts
2026-05-05 08:37 -26.14561 28.23459 5571 ft 13 kts 15°
2026-05-05 08:38 -26.14285 28.23543 5574 ft 72 kts 15°
2026-05-05 08:38 -26.13653 28.23738 5568 ft 125 kts 15°
2026-05-05 08:38 -26.12706 28.24030 5552 ft 171 kts 14°
2026-05-05 08:38 -26.11478 28.24422 5634 ft 202 kts 14°
2026-05-05 08:39 -26.10150 28.24855 6381 ft 199 kts 13°
2026-05-05 08:39 -26.08949 28.25243 7032 ft 199 kts 12°
2026-05-05 08:39 -26.07776 28.25629 7554 ft 202 kts 12°
2026-05-05 08:39 -26.06525 28.26049 7836 ft 209 kts 10°
2026-05-05 08:40 -26.05231 28.26133 8029 ft 212 kts 343°
2026-05-05 08:40 -26.04040 28.25586 8259 ft 219 kts 324°
2026-05-05 08:40 -26.03044 28.24550 8498 ft 229 kts 313°
2026-05-05 08:40 -26.02137 28.23347 8752 ft 239 kts 310°
2026-05-05 08:41 -26.01176 28.21998 9014 ft 249 kts 309°
2026-05-05 08:41 -25.99996 28.20568 9278 ft 260 kts 323°
2026-05-05 08:41 -25.98507 28.19456 9597 ft 270 kts 327°
2026-05-05 08:41 -25.96880 28.18358 10098 ft 275 kts 327°
2026-05-05 08:42 -25.95268 28.17254 10603 ft 277 kts 327°
2026-05-05 08:42 -25.93617 28.16101 10852 ft 290 kts 326°
2026-05-05 08:42 -25.91891 28.14874 11078 ft 303 kts 326°
2026-05-05 08:42 -25.90087 28.13585 11318 ft 315 kts 326°
2026-05-05 08:43 -25.88211 28.12240 11491 ft 328 kts 326°
2026-05-05 08:43 -25.86274 28.10847 11733 ft 340 kts 326°
2026-05-05 08:43 -25.84336 28.09451 12018 ft 350 kts 326°
2026-05-05 08:43 -25.82286 28.07972 12494 ft 354 kts 326°
2026-05-05 08:44 -25.80223 28.06484 13097 ft 355 kts 327°
2026-05-05 08:44 -25.77987 28.05298 13563 ft 364 kts 343°
2026-05-05 08:44 -25.75483 28.04814 14097 ft 366 kts 348°
2026-05-05 08:44 -25.72959 28.04407 14664 ft 367 kts 348°
2026-05-05 08:45 -25.70432 28.03977 15131 ft 369 kts 348°
2026-05-05 08:45 -25.67891 28.03520 15570 ft 372 kts 347°
2026-05-05 08:45 -25.65336 28.03045 16049 ft 374 kts 347°
2026-05-05 08:45 -25.62761 28.02556 16516 ft 377 kts 347°
2026-05-05 08:46 -25.60154 28.02055 16987 ft 380 kts 347°
2026-05-05 08:46 -25.58438 28.01724 17288 ft 382 kts 347°
2026-05-05 08:46 -25.55828 28.01221 17749 ft 384 kts 347°
2026-05-05 08:46 -25.53184 28.00730 18211 ft 387 kts 348°
2026-05-05 08:47 -25.50515 28.00281 18608 ft 390 kts 348°
2026-05-05 08:47 -25.47830 27.99842 18993 ft 392 kts 348°
2026-05-05 08:47 -25.45136 27.99401 19395 ft 393 kts 348°
2026-05-05 08:47 -25.42418 27.98954 19769 ft 396 kts 347°
2026-05-05 08:48 -25.39693 27.98504 20149 ft 398 kts 347°
2026-05-05 08:48 -25.36943 27.98050 20518 ft 400 kts 347°
2026-05-05 08:48 -25.34182 27.97593 20904 ft 402 kts 347°
2026-05-05 08:48 -25.31407 27.97133 21271 ft 405 kts 347°
2026-05-05 08:49 -25.28621 27.96671 21632 ft 407 kts 347°
2026-05-05 08:49 -25.25809 27.96205 22009 ft 409 kts 347°
2026-05-05 08:49 -25.22988 27.95738 22365 ft 411 kts 347°
2026-05-05 08:49 -25.20147 27.95267 22686 ft 414 kts 347°
2026-05-05 08:50 -25.17293 27.94795 23016 ft 416 kts 347°
2026-05-05 08:50 -25.14421 27.94320 23366 ft 419 kts 347°
2026-05-05 08:50 -25.11529 27.93842 23678 ft 421 kts 346°
2026-05-05 08:50 -25.08626 27.93363 23948 ft 423 kts 346°
2026-05-05 08:51 -25.05716 27.92883 24253 ft 424 kts 346°
2026-05-05 08:51 -25.02795 27.92402 24566 ft 425 kts 346°
2026-05-05 08:51 -24.99868 27.91919 24877 ft 426 kts 346°
2026-05-05 08:51 -24.96930 27.91436 25185 ft 427 kts 346°
2026-05-05 08:52 -24.93995 27.90952 25470 ft 428 kts 346°
2026-05-05 08:52 -24.91040 27.90465 25738 ft 430 kts 346°
2026-05-05 08:52 -24.88078 27.89977 26008 ft 432 kts 346°
2026-05-05 08:52 -24.85149 27.89495 26290 ft 433 kts 346°
2026-05-05 08:53 -24.82131 27.88997 26576 ft 434 kts 346°
2026-05-05 08:53 -24.79176 27.88509 26881 ft 435 kts 346°
2026-05-05 08:53 -24.76178 27.88015 27169 ft 436 kts 346°
2026-05-05 08:53 -24.73175 27.87519 27480 ft 437 kts 346°
2026-05-05 08:54 -24.70157 27.87022 27739 ft 439 kts 345°
2026-05-05 08:54 -24.67130 27.86522 27960 ft 440 kts 346°
2026-05-05 08:54 -24.64096 27.86021 28187 ft 442 kts 346°
2026-05-05 08:54 -24.61052 27.85521 28430 ft 443 kts 346°
2026-05-05 08:55 -24.58000 27.85021 28704 ft 444 kts 346°
2026-05-05 08:55 -24.54954 27.84524 29087 ft 442 kts 346°
2026-05-05 08:55 -24.51919 27.84028 29485 ft 440 kts 346°
2026-05-05 08:55 -24.48899 27.83535 29886 ft 438 kts 345°
2026-05-05 08:56 -24.45893 27.83043 30228 ft 436 kts 345°
2026-05-05 08:56 -24.42886 27.82551 30519 ft 435 kts 345°
2026-05-05 08:56 -24.39900 27.82060 30779 ft 434 kts 345°
2026-05-05 08:56 -24.36911 27.81568 31011 ft 434 kts 346°
2026-05-05 08:57 -24.33923 27.81080 31236 ft 435 kts 346°
2026-05-05 08:57 -24.30930 27.80591 31475 ft 435 kts 345°
2026-05-05 08:57 -24.27938 27.80102 31691 ft 435 kts 345°
2026-05-05 08:57 -24.24946 27.79613 31919 ft 436 kts 345°
2026-05-05 08:58 -24.21942 27.79123 32111 ft 436 kts 345°
2026-05-05 08:58 -24.18984 27.78640 32317 ft 437 kts 345°
2026-05-05 08:58 -24.15938 27.78144 32524 ft 437 kts 345°
2026-05-05 08:58 -24.12923 27.77652 32707 ft 438 kts 345°
2026-05-05 08:59 -24.09912 27.77160 32867 ft 440 kts 346°
2026-05-05 08:59 -24.06911 27.76671 33014 ft 442 kts 346°
2026-05-05 08:59 -24.03873 27.76177 33024 ft 442 kts 346°
2026-05-05 09:00 -23.97786 27.75188 33029 ft 442 kts 346°
2026-05-05 09:00 -23.91698 27.74200 33033 ft 442 kts 346°
2026-05-05 09:01 -23.85613 27.73213 33010 ft 443 kts 346°
2026-05-05 09:01 -23.79501 27.72220 33023 ft 445 kts 346°
2026-05-05 09:02 -23.73382 27.71230 33014 ft 445 kts 346°
2026-05-05 09:02 -23.67255 27.70239 33019 ft 445 kts 346°
2026-05-05 09:03 -23.61136 27.69250 33014 ft 445 kts 346°
2026-05-05 09:03 -23.55009 27.68260 33008 ft 447 kts 346°
2026-05-05 09:04 -23.48851 27.67266 33015 ft 447 kts 346°
2026-05-05 09:04 -23.42688 27.66274 33012 ft 447 kts 346°
2026-05-05 09:05 -23.36539 27.65284 33011 ft 448 kts 346°
2026-05-05 09:05 -23.30374 27.64293 32985 ft 448 kts 346°
2026-05-05 09:06 -23.24164 27.63295 33006 ft 451 kts 346°
2026-05-05 09:06 -23.17948 27.62512 33009 ft 453 kts 349°
2026-05-05 09:07 -23.11676 27.61888 33005 ft 453 kts 348°
2026-05-05 09:07 -23.05396 27.61264 33004 ft 453 kts 348°
2026-05-05 09:08 -22.99114 27.60641 32994 ft 454 kts 349°
2026-05-05 09:08 -22.92826 27.60020 32995 ft 454 kts 349°
2026-05-05 09:09 -22.86534 27.59401 32991 ft 454 kts 349°
2026-05-05 09:09 -22.80248 27.58783 32986 ft 454 kts 349°
2026-05-05 09:10 -22.73958 27.58164 32983 ft 454 kts 349°
2026-05-05 09:10 -22.67666 27.57546 32983 ft 454 kts 349°
2026-05-05 09:11 -22.61369 27.56929 32981 ft 454 kts 349°
2026-05-05 09:11 -22.55076 27.56312 32983 ft 454 kts 349°
2026-05-05 09:12 -22.48782 27.55695 32982 ft 454 kts 349°
2026-05-05 09:12 -22.42469 27.55074 32967 ft 457 kts 349°
2026-05-05 09:13 -22.36134 27.54456 32975 ft 458 kts 349°
2026-05-05 09:13 -22.29827 27.53842 32975 ft 458 kts 349°
2026-05-05 09:14 -22.23568 27.53232 32969 ft 458 kts 349°
2026-05-05 09:14 -22.17231 27.52614 32957 ft 459 kts 349°
2026-05-05 09:15 -22.10857 27.51992 32964 ft 460 kts 349°
2026-05-05 09:15 -22.04490 27.51376 32967 ft 461 kts 349°
2026-05-05 09:16 -21.98104 27.50756 32969 ft 461 kts 349°
2026-05-05 09:16 -21.91674 27.50392 32967 ft 463 kts 352°
2026-05-05 09:17 -21.85237 27.50128 32957 ft 464 kts 352°
2026-05-05 09:17 -21.78768 27.49868 32959 ft 465 kts 352°
2026-05-05 09:18 -21.72309 27.49609 32960 ft 465 kts 352°
2026-05-05 09:18 -21.65849 27.49351 32959 ft 464 kts 352°
2026-05-05 09:19 -21.59393 27.49091 32944 ft 465 kts 353°
2026-05-05 09:19 -21.52914 27.48831 32965 ft 467 kts 353°
2026-05-05 09:20 -21.46428 27.48575 32961 ft 467 kts 353°
2026-05-05 09:20 -21.39937 27.48318 32967 ft 467 kts 353°
2026-05-05 09:21 -21.33437 27.48061 32964 ft 467 kts 353°
2026-05-05 09:21 -21.26956 27.47803 32958 ft 468 kts 353°
2026-05-05 09:22 -21.20456 27.47476 32971 ft 466 kts 350°
2026-05-05 09:22 -21.14057 27.46599 32976 ft 461 kts 345°
2026-05-05 09:23 -21.07827 27.45111 32971 ft 459 kts 341°
2026-05-05 09:23 -21.01639 27.43457 32963 ft 460 kts 341°
2026-05-05 09:24 -20.95437 27.41802 32978 ft 461 kts 341°
2026-05-05 09:24 -20.89224 27.40146 32979 ft 461 kts 341°
2026-05-05 09:25 -20.82998 27.38488 32983 ft 461 kts 341°
2026-05-05 09:25 -20.76779 27.36832 32985 ft 461 kts 341°
2026-05-05 09:26 -20.70549 27.35173 32983 ft 462 kts 342°
2026-05-05 09:26 -20.64310 27.33515 32989 ft 462 kts 342°
2026-05-05 09:27 -20.58113 27.31870 32993 ft 462 kts 342°
2026-05-05 09:27 -20.51866 27.30212 32999 ft 462 kts 342°
2026-05-05 09:28 -20.45624 27.28557 32986 ft 462 kts 342°
2026-05-05 09:28 -20.39375 27.26900 33001 ft 463 kts 342°
2026-05-05 09:29 -20.33117 27.25245 33004 ft 463 kts 342°
2026-05-05 09:29 -20.26867 27.23593 33007 ft 463 kts 342°
2026-05-05 09:30 -20.20607 27.21940 33006 ft 463 kts 342°
2026-05-05 09:30 -20.14386 27.20296 33001 ft 464 kts 342°
2026-05-05 09:31 -20.08116 27.18643 33007 ft 465 kts 342°
2026-05-05 09:31 -20.01841 27.16995 33020 ft 465 kts 342°
2026-05-05 09:32 -19.95578 27.15349 33013 ft 464 kts 342°
2026-05-05 09:32 -19.89318 27.13695 33016 ft 464 kts 342°
2026-05-05 09:33 -19.83051 27.12042 33017 ft 464 kts 342°
2026-05-05 09:33 -19.77836 27.10669 33017 ft 464 kts 342°
2026-05-05 09:34 -19.71569 27.09022 33017 ft 464 kts 342°
2026-05-05 09:34 -19.65302 27.07375 33018 ft 464 kts 342°
2026-05-05 09:35 -19.59025 27.05726 33008 ft 465 kts 342°
2026-05-05 09:35 -19.49607 27.03259 33016 ft 465 kts 342°
2026-05-05 09:36 -19.43317 27.01613 33021 ft 465 kts 342°
2026-05-05 09:36 -19.37030 26.99966 33027 ft 465 kts 342°
2026-05-05 09:37 -19.30797 26.98337 33017 ft 465 kts 342°
2026-05-05 09:37 -19.24500 26.96692 33034 ft 466 kts 342°
2026-05-05 09:38 -19.18208 26.95053 33036 ft 467 kts 342°
2026-05-05 09:38 -19.11903 26.93412 33041 ft 467 kts 342°
2026-05-05 09:39 -19.05592 26.91768 33043 ft 467 kts 342°
2026-05-05 09:39 -18.99290 26.90122 33046 ft 467 kts 343°
2026-05-05 09:40 -18.92971 26.88477 33061 ft 468 kts 343°
2026-05-05 09:40 -18.86649 26.86837 33087 ft 468 kts 342°
2026-05-05 09:41 -18.80335 26.85201 33096 ft 467 kts 342°
2026-05-05 09:41 -18.74017 26.83561 33103 ft 467 kts 342°
2026-05-05 09:42 -18.67695 26.81920 33103 ft 468 kts 343°
2026-05-05 09:42 -18.61375 26.80286 33103 ft 468 kts 343°
2026-05-05 09:43 -18.55053 26.78649 33093 ft 468 kts 343°
2026-05-05 09:43 -18.48727 26.77009 33084 ft 468 kts 343°
2026-05-05 09:44 -18.42405 26.75373 33064 ft 468 kts 343°
2026-05-05 09:44 -18.36082 26.73737 33066 ft 469 kts 343°
2026-05-05 09:45 -18.29746 26.72103 33063 ft 469 kts 343°
2026-05-05 09:45 -18.23408 26.70469 33063 ft 469 kts 343°
2026-05-05 09:46 -18.17114 26.68848 33060 ft 469 kts 343°
2026-05-05 09:46 -18.10788 26.67220 33049 ft 470 kts 343°
2026-05-05 09:47 -18.04431 26.65585 33054 ft 470 kts 343°
2026-05-05 09:47 -17.98071 26.63947 33055 ft 470 kts 343°
2026-05-05 09:48 -17.91720 26.62313 33066 ft 470 kts 343°
2026-05-05 09:48 -17.85361 26.60678 33064 ft 470 kts 343°
2026-05-05 09:49 -17.79017 26.59049 33062 ft 472 kts 343°
2026-05-05 09:49 -17.72632 26.57412 33064 ft 472 kts 343°
2026-05-05 09:50 -17.66261 26.55781 33066 ft 471 kts 343°
2026-05-05 09:50 -17.59899 26.54152 33059 ft 471 kts 343°
2026-05-05 09:51 -17.53531 26.52522 33048 ft 471 kts 343°
2026-05-05 09:51 -17.47156 26.50891 33056 ft 472 kts 343°
2026-05-05 09:52 -17.40777 26.49263 33056 ft 472 kts 343°
2026-05-05 09:52 -17.34441 26.47647 33058 ft 472 kts 343°
2026-05-05 09:53 -17.28104 26.46031 33052 ft 472 kts 343°
2026-05-05 09:53 -17.21685 26.44385 33043 ft 473 kts 343°
2026-05-05 09:54 -17.15355 26.42674 33044 ft 474 kts 343°
2026-05-05 09:54 -17.08985 26.40944 33046 ft 474 kts 343°
2026-05-05 09:55 -17.02608 26.39222 33048 ft 474 kts 343°
2026-05-05 09:55 -16.96241 26.37508 33043 ft 474 kts 343°
2026-05-05 09:56 -16.89851 26.35789 33044 ft 474 kts 343°
2026-05-05 09:56 -16.83461 26.34073 33035 ft 474 kts 343°
2026-05-05 09:57 -16.77087 26.32358 33033 ft 474 kts 343°
2026-05-05 09:57 -16.70722 26.30626 33035 ft 474 kts 343°
2026-05-05 09:58 -16.64341 26.28892 33028 ft 474 kts 343°
2026-05-05 09:58 -16.57951 26.27158 33021 ft 475 kts 343°
2026-05-05 09:59 -16.51549 26.25424 33019 ft 475 kts 343°
2026-05-05 09:59 -16.45166 26.23695 33016 ft 474 kts 343°
2026-05-05 10:00 -16.38791 26.21972 33009 ft 474 kts 343°
2026-05-05 10:00 -16.32458 26.20260 32999 ft 474 kts 343°
2026-05-05 10:01 -16.26040 26.18527 33006 ft 476 kts 343°
2026-05-05 10:01 -16.19629 26.16796 33007 ft 476 kts 343°
2026-05-05 10:02 -16.13221 26.15068 33001 ft 476 kts 343°
2026-05-05 10:02 -16.06804 26.13338 33022 ft 478 kts 343°
2026-05-05 10:03 -16.03602 26.12476 33210 ft 474 kts 343°
2026-05-05 10:03 -16.00409 26.11616 33451 ft 474 kts 343°
2026-05-05 10:03 -15.97227 26.10759 33702 ft 473 kts 343°
2026-05-05 10:03 -15.94046 26.09903 33963 ft 472 kts 343°
2026-05-05 10:04 -15.90862 26.09047 34197 ft 471 kts 343°
2026-05-05 10:04 -15.87692 26.08195 34420 ft 470 kts 343°
2026-05-05 10:04 -15.84527 26.07344 34650 ft 469 kts 343°
2026-05-05 10:04 -15.81369 26.06496 34886 ft 468 kts 343°
2026-05-05 10:05 -15.75057 26.04800 34984 ft 468 kts 343°
2026-05-05 10:05 -15.68741 26.03103 34986 ft 469 kts 343°
2026-05-05 10:06 -15.62466 26.01420 34990 ft 469 kts 343°
2026-05-05 10:06 -15.56147 25.99727 34990 ft 469 kts 343°
2026-05-05 10:07 -15.49823 25.98033 34987 ft 469 kts 343°
2026-05-05 10:07 -15.43499 25.96342 34987 ft 469 kts 343°
2026-05-05 10:08 -15.37178 25.94649 34983 ft 469 kts 343°
2026-05-05 10:08 -15.30854 25.92958 34987 ft 470 kts 343°
2026-05-05 10:09 -15.24525 25.91268 34987 ft 470 kts 343°
2026-05-05 10:09 -15.18197 25.89580 34988 ft 470 kts 343°
2026-05-05 10:10 -15.11866 25.87893 34986 ft 470 kts 343°
2026-05-05 10:10 -15.05534 25.86206 34987 ft 470 kts 343°
2026-05-05 10:11 -14.99211 25.84524 34987 ft 470 kts 343°
2026-05-05 10:11 -14.92880 25.82841 34987 ft 470 kts 343°
2026-05-05 10:12 -14.86544 25.81157 34987 ft 470 kts 343°
2026-05-05 10:12 -14.80253 25.79487 34987 ft 470 kts 343°
2026-05-05 10:13 -14.73922 25.77804 34983 ft 470 kts 343°
2026-05-05 10:13 -14.67575 25.76122 34984 ft 470 kts 343°
2026-05-05 10:14 -14.61236 25.74442 34985 ft 471 kts 343°
2026-05-05 10:14 -14.54894 25.72762 34985 ft 471 kts 343°
2026-05-05 10:15 -14.48547 25.71082 34981 ft 471 kts 343°
2026-05-05 10:15 -14.42197 25.69400 34981 ft 471 kts 343°
2026-05-05 10:16 -14.35843 25.67720 34982 ft 472 kts 343°
2026-05-05 10:16 -14.29482 25.66039 34982 ft 472 kts 343°
2026-05-05 10:17 -14.23124 25.64360 34979 ft 472 kts 343°
2026-05-05 10:17 -14.16763 25.62681 34975 ft 471 kts 343°
2026-05-05 10:18 -14.10409 25.61003 34979 ft 472 kts 344°
2026-05-05 10:18 -14.04048 25.59326 34981 ft 472 kts 344°
2026-05-05 10:19 -13.97694 25.57652 34977 ft 472 kts 344°
2026-05-05 10:19 -13.91324 25.55975 34977 ft 472 kts 344°
2026-05-05 10:20 -13.84965 25.54301 34976 ft 472 kts 344°
2026-05-05 10:20 -13.78641 25.52637 34977 ft 472 kts 344°
2026-05-05 10:21 -13.72282 25.50966 34972 ft 472 kts 344°
2026-05-05 10:21 -13.65914 25.49293 34970 ft 472 kts 344°
2026-05-05 10:22 -13.59551 25.47622 34971 ft 472 kts 344°
2026-05-05 10:22 -13.53185 25.45952 34958 ft 472 kts 344°
2026-05-05 10:23 -13.46813 25.44281 34966 ft 473 kts 344°
2026-05-05 10:23 -13.40438 25.42610 34971 ft 473 kts 344°
2026-05-05 10:24 -13.34065 25.40938 34967 ft 473 kts 344°
2026-05-05 10:24 -13.27686 25.39267 34976 ft 473 kts 344°
2026-05-05 10:25 -13.22390 25.37881 34970 ft 473 kts 344°
2026-05-05 10:25 -13.16007 25.36211 34967 ft 474 kts 344°
2026-05-05 10:26 -13.09619 25.34542 34973 ft 474 kts 344°
2026-05-05 10:26 -13.03228 25.32874 34974 ft 474 kts 344°
2026-05-05 10:27 -12.96839 25.31206 34974 ft 474 kts 344°
2026-05-05 10:27 -12.90454 25.29541 34974 ft 474 kts 344°
2026-05-05 10:28 -12.84057 25.27872 34977 ft 474 kts 344°
2026-05-05 10:28 -12.77656 25.26205 34971 ft 475 kts 344°
2026-05-05 10:29 -12.71255 25.24538 34971 ft 475 kts 344°
2026-05-05 10:29 -12.64855 25.22872 34971 ft 475 kts 344°
2026-05-05 10:30 -12.58453 25.21207 34974 ft 475 kts 344°
2026-05-05 10:30 -12.52044 25.19540 34968 ft 475 kts 344°
2026-05-05 10:31 -12.45673 25.17884 34974 ft 475 kts 344°
2026-05-05 10:31 -12.39264 25.16220 34974 ft 476 kts 344°
2026-05-05 10:32 -12.32852 25.14557 34977 ft 476 kts 345°
2026-05-05 10:32 -12.26428 25.12891 34969 ft 476 kts 345°
2026-05-05 10:33 -12.20008 25.11227 34967 ft 476 kts 345°
2026-05-05 10:33 -12.13585 25.09561 34970 ft 476 kts 345°
2026-05-05 10:34 -12.07178 25.07897 34975 ft 477 kts 345°
2026-05-05 10:34 -12.00830 25.06251 34976 ft 477 kts 345°
2026-05-05 10:35 -11.94385 25.04582 34986 ft 476 kts 345°
2026-05-05 10:35 -11.87955 25.02917 34988 ft 477 kts 345°
2026-05-05 10:36 -11.81524 25.01254 34984 ft 477 kts 345°
2026-05-05 10:36 -11.75092 24.99594 34978 ft 477 kts 345°
2026-05-05 10:37 -11.68663 24.97933 34987 ft 477 kts 345°
2026-05-05 10:37 -11.62276 24.96285 34988 ft 478 kts 345°
2026-05-05 10:38 -11.55783 24.94609 34984 ft 486 kts 345°
2026-05-05 10:38 -11.49209 24.92911 34982 ft 492 kts 345°
2026-05-05 10:39 -11.42552 24.91187 34978 ft 495 kts 345°
2026-05-05 10:39 -11.35872 24.89462 34979 ft 496 kts 345°
2026-05-05 10:40 -11.29203 24.87741 34974 ft 496 kts 345°
2026-05-05 10:40 -11.22503 24.86012 34974 ft 496 kts 345°
2026-05-05 10:41 -11.15846 24.84297 34964 ft 496 kts 345°
2026-05-05 10:41 -11.09216 24.82589 34966 ft 497 kts 345°
2026-05-05 10:42 -10.99169 24.80003 34961 ft 497 kts 345°
2026-05-05 10:43 -10.92425 24.78267 34956 ft 498 kts 345°
2026-05-05 10:43 -10.85766 24.76555 34952 ft 498 kts 345°
2026-05-05 10:44 -10.79047 24.74828 34951 ft 498 kts 345°
2026-05-05 10:44 -10.72325 24.73102 34952 ft 498 kts 345°
2026-05-05 10:45 -10.65553 24.71363 34949 ft 498 kts 345°
2026-05-05 10:45 -10.58890 24.69652 34944 ft 498 kts 345°
2026-05-05 10:46 -10.52120 24.67916 34941 ft 498 kts 345°
2026-05-05 10:46 -10.45439 24.66202 34941 ft 498 kts 345°
2026-05-05 10:47 -10.38716 24.64479 34938 ft 498 kts 345°
2026-05-05 10:47 -10.31994 24.62757 34943 ft 498 kts 345°
2026-05-05 10:48 -10.25268 24.61035 34952 ft 500 kts 345°
2026-05-05 10:48 -10.18576 24.59323 34944 ft 500 kts 345°
2026-05-05 10:49 -10.11833 24.57599 34933 ft 500 kts 345°
2026-05-05 10:49 -10.05133 24.55888 34933 ft 500 kts 345°
2026-05-05 10:50 -9.98390 24.54163 34927 ft 500 kts 345°
2026-05-05 10:50 -9.91650 24.52438 34925 ft 501 kts 345°
2026-05-05 10:51 -9.84891 24.50713 34928 ft 501 kts 345°
2026-05-05 10:51 -9.78142 24.48992 34928 ft 501 kts 345°
2026-05-05 10:52 -9.71440 24.47284 34924 ft 501 kts 345°
2026-05-05 10:52 -9.64632 24.45550 34924 ft 501 kts 345°
2026-05-05 10:53 -9.57919 24.43840 34929 ft 501 kts 345°
2026-05-05 10:53 -9.51159 24.42120 34930 ft 501 kts 345°
2026-05-05 10:54 -9.44396 24.40400 34933 ft 501 kts 345°
2026-05-05 10:54 -9.37641 24.38683 34935 ft 501 kts 345°
2026-05-05 10:55 -9.30888 24.36969 34932 ft 502 kts 345°
2026-05-05 10:55 -9.24133 24.35252 34941 ft 501 kts 345°
2026-05-05 10:56 -9.17389 24.33522 34940 ft 501 kts 345°
2026-05-05 10:56 -9.10680 24.31708 34944 ft 501 kts 344°
2026-05-05 10:57 -9.03949 24.29882 34944 ft 501 kts 344°
2026-05-05 10:57 -8.97227 24.28067 34941 ft 501 kts 345°
2026-05-05 10:58 -8.90491 24.26253 34941 ft 501 kts 345°
2026-05-05 10:58 -8.83800 24.24453 34939 ft 501 kts 345°
2026-05-05 10:59 -8.77162 24.22668 34939 ft 501 kts 345°
2026-05-05 10:59 -8.70501 24.20878 34938 ft 501 kts 345°
2026-05-05 11:00 -8.63773 24.19071 34940 ft 501 kts 345°
2026-05-05 11:00 -8.57047 24.17264 34942 ft 501 kts 345°
2026-05-05 11:01 -8.50303 24.15454 34941 ft 501 kts 345°
2026-05-05 11:01 -8.43578 24.13649 34941 ft 501 kts 345°
2026-05-05 11:02 -8.36845 24.11844 34938 ft 501 kts 345°
2026-05-05 11:02 -8.30138 24.10046 34936 ft 501 kts 345°
2026-05-05 11:03 -8.23394 24.08238 34938 ft 501 kts 345°
2026-05-05 11:03 -8.16684 24.06443 34938 ft 501 kts 345°
2026-05-05 11:04 -8.09967 24.04645 34941 ft 502 kts 345°
2026-05-05 11:04 -8.03177 24.02855 34937 ft 502 kts 346°
2026-05-05 11:05 -7.96386 24.01278 34934 ft 502 kts 346°
2026-05-05 11:05 -7.89632 23.99725 34935 ft 503 kts 347°
2026-05-05 11:06 -7.82820 23.98161 34933 ft 503 kts 347°
2026-05-05 11:06 -7.76016 23.96598 34927 ft 503 kts 347°
2026-05-05 11:07 -7.69195 23.95031 34928 ft 503 kts 347°
2026-05-05 11:07 -7.62378 23.93465 34923 ft 503 kts 347°
2026-05-05 11:08 -7.55558 23.91898 34926 ft 503 kts 347°
2026-05-05 11:08 -7.48767 23.90341 34920 ft 503 kts 347°
2026-05-05 11:09 -7.41946 23.88778 34920 ft 502 kts 347°
2026-05-05 11:09 -7.35184 23.87228 34919 ft 503 kts 347°
2026-05-05 11:10 -7.28366 23.85667 34919 ft 504 kts 347°
2026-05-05 11:10 -7.21566 23.84054 34918 ft 502 kts 346°
2026-05-05 11:11 -7.14780 23.82333 34915 ft 502 kts 345°
2026-05-05 11:11 -7.08003 23.80617 34916 ft 503 kts 346°
2026-05-05 11:12 -7.01226 23.78911 34917 ft 503 kts 346°
2026-05-05 11:12 -6.94450 23.77212 34909 ft 503 kts 346°
2026-05-05 11:13 -6.87674 23.75513 34908 ft 504 kts 346°
2026-05-05 11:13 -6.80882 23.73814 34911 ft 504 kts 345°
2026-05-05 11:14 -6.75237 23.72400 34908 ft 503 kts 345°
2026-05-05 11:14 -6.68484 23.70708 34910 ft 503 kts 345°
2026-05-05 11:15 -6.61713 23.69012 34902 ft 503 kts 345°
2026-05-05 11:15 -6.54916 23.67313 34905 ft 504 kts 345°
2026-05-05 11:16 -6.48122 23.65613 34906 ft 504 kts 345°
2026-05-05 11:16 -6.41350 23.63920 34907 ft 504 kts 345°
2026-05-05 11:17 -6.34585 23.62229 34893 ft 504 kts 345°
2026-05-05 11:17 -6.27831 23.60542 34901 ft 504 kts 345°
2026-05-05 11:18 -6.21014 23.58840 34891 ft 505 kts 346°
2026-05-05 11:18 -6.14196 23.57139 34894 ft 506 kts 346°
2026-05-05 11:19 -6.07296 23.55746 34893 ft 505 kts 349°
2026-05-05 11:19 -6.00374 23.54545 34893 ft 505 kts 350°
2026-05-05 11:20 -5.93438 23.53346 34894 ft 506 kts 349°
2026-05-05 11:20 -5.86499 23.52147 34889 ft 508 kts 349°
2026-05-05 11:21 -5.79584 23.50948 34890 ft 508 kts 349°
2026-05-05 11:21 -5.72623 23.49742 34890 ft 508 kts 349°
2026-05-05 11:22 -5.65664 23.48539 34891 ft 508 kts 349°
2026-05-05 11:22 -5.58700 23.47336 34894 ft 508 kts 349°
2026-05-05 11:23 -5.51732 23.46130 34897 ft 508 kts 350°
2026-05-05 11:23 -5.44761 23.44937 34892 ft 508 kts 350°
2026-05-05 11:24 -5.37795 23.43748 34893 ft 508 kts 350°
2026-05-05 11:24 -5.30817 23.42559 34885 ft 508 kts 349°
2026-05-05 11:25 -5.23865 23.41374 34895 ft 508 kts 350°
2026-05-05 11:25 -5.16916 23.40185 34894 ft 508 kts 351°
2026-05-05 11:26 -5.09947 23.39002 34892 ft 508 kts 351°
2026-05-05 11:26 -5.02988 23.37809 34895 ft 508 kts 351°
2026-05-05 11:27 -4.96035 23.36620 34892 ft 508 kts 351°
2026-05-05 11:27 -4.89080 23.35433 34902 ft 508 kts 351°
2026-05-05 11:28 -4.82124 23.34245 34898 ft 507 kts 351°
2026-05-05 11:28 -4.75184 23.33061 34897 ft 507 kts 351°
2026-05-05 11:29 -4.68181 23.31865 34895 ft 507 kts 351°
2026-05-05 11:29 -4.61246 23.30683 34900 ft 507 kts 351°
2026-05-05 11:30 -4.54311 23.29504 34898 ft 507 kts 351°
2026-05-05 11:30 -4.47372 23.28323 34900 ft 506 kts 351°
2026-05-05 11:31 -4.40431 23.27139 34898 ft 505 kts 351°
2026-05-05 11:31 -4.33646 23.25986 34896 ft 506 kts 351°
2026-05-05 11:32 -4.26723 23.24814 34897 ft 506 kts 351°
2026-05-05 11:32 -4.19787 23.23634 34897 ft 506 kts 351°
2026-05-05 11:33 -4.12875 23.22354 34898 ft 505 kts 348°
2026-05-05 11:33 -4.06119 23.20489 34897 ft 506 kts 342°
2026-05-05 11:34 -3.99550 23.17951 34896 ft 507 kts 336°
2026-05-05 11:34 -3.93258 23.14775 34898 ft 508 kts 332°
2026-05-05 11:35 -3.87095 23.11302 34896 ft 508 kts 331°
2026-05-05 11:35 -3.80978 23.07848 34895 ft 506 kts 331°
2026-05-05 11:36 -3.74891 23.04416 34892 ft 500 kts 332°
2026-05-05 11:36 -3.68826 23.01001 34893 ft 499 kts 332°
2026-05-05 11:37 -3.62785 22.97603 34891 ft 499 kts 332°
2026-05-05 11:37 -3.56736 22.94206 34892 ft 500 kts 331°
2026-05-05 11:38 -3.50678 22.90800 34887 ft 499 kts 331°
2026-05-05 11:38 -3.44615 22.87396 34890 ft 500 kts 331°
2026-05-05 11:39 -3.38525 22.83970 34893 ft 499 kts 331°
2026-05-05 11:39 -3.32475 22.80580 34885 ft 499 kts 332°
2026-05-05 11:40 -3.26400 22.77195 34886 ft 500 kts 331°
2026-05-05 11:40 -3.20340 22.73824 34883 ft 500 kts 331°
2026-05-05 11:41 -3.14264 22.70438 34880 ft 502 kts 331°
2026-05-05 11:41 -3.08228 22.67077 34881 ft 503 kts 331°
2026-05-05 11:42 -3.02121 22.63678 34879 ft 503 kts 331°
2026-05-05 11:42 -2.96019 22.60282 34879 ft 502 kts 331°
2026-05-05 11:43 -2.89908 22.56883 34874 ft 503 kts 331°
2026-05-05 11:43 -2.83807 22.53489 34875 ft 502 kts 331°
2026-05-05 11:44 -2.77692 22.50086 34880 ft 504 kts 331°
2026-05-05 11:44 -2.71563 22.46678 34875 ft 505 kts 331°
2026-05-05 11:45 -2.65423 22.43265 34874 ft 505 kts 331°
2026-05-05 11:45 -2.59308 22.39865 34872 ft 505 kts 331°
2026-05-05 11:46 -2.53181 22.36458 34871 ft 505 kts 331°
2026-05-05 11:46 -2.47053 22.33052 34871 ft 505 kts 331°
2026-05-05 11:47 -2.40902 22.29631 34869 ft 506 kts 331°
2026-05-05 11:47 -2.34749 22.26214 34870 ft 506 kts 332°
2026-05-05 11:48 -2.25536 22.21093 34869 ft 506 kts 331°
2026-05-05 11:48 -2.19400 22.17684 34872 ft 506 kts 331°
2026-05-05 11:49 -2.13239 22.14261 34873 ft 506 kts 332°
2026-05-05 11:49 -2.07100 22.10856 34873 ft 503 kts 331°
2026-05-05 11:50 -2.01013 22.07474 34869 ft 501 kts 331°
2026-05-05 11:50 -1.94924 22.04090 34871 ft 502 kts 331°
2026-05-05 11:51 -1.88845 22.00713 34868 ft 501 kts 331°
2026-05-05 11:51 -1.82767 21.97338 34866 ft 502 kts 331°
2026-05-05 11:52 -1.76671 21.93954 34865 ft 502 kts 331°
2026-05-05 11:52 -1.70596 21.90585 34866 ft 504 kts 330°
2026-05-05 11:53 -1.64430 21.87160 34869 ft 504 kts 330°
2026-05-05 11:53 -1.58346 21.83782 34865 ft 504 kts 330°
2026-05-05 11:54 -1.52214 21.80378 34856 ft 504 kts 330°
2026-05-05 11:54 -1.46099 21.76987 34861 ft 504 kts 330°
2026-05-05 11:55 -1.40019 21.73614 34856 ft 505 kts 330°
2026-05-05 11:55 -1.33871 21.70206 34861 ft 507 kts 330°
2026-05-05 11:56 -1.27707 21.66779 34853 ft 507 kts 330°
2026-05-05 11:56 -1.21558 21.63361 34852 ft 507 kts 330°
2026-05-05 11:57 -1.15426 21.59955 34849 ft 507 kts 330°
2026-05-05 11:57 -1.09265 21.56538 34849 ft 507 kts 330°
2026-05-05 11:58 -1.03122 21.53133 34856 ft 509 kts 330°
2026-05-05 11:58 -0.96956 21.49712 34851 ft 509 kts 330°
2026-05-05 11:59 -0.90747 21.46265 34852 ft 510 kts 330°
2026-05-05 11:59 -0.84550 21.42824 34851 ft 509 kts 330°
2026-05-05 12:00 -0.78351 21.39390 34856 ft 510 kts 330°
2026-05-05 12:00 -0.72144 21.35944 34855 ft 509 kts 330°
2026-05-05 12:01 -0.67010 21.33096 34849 ft 510 kts 330°
2026-05-05 12:01 -0.60821 21.29668 34848 ft 510 kts 330°
2026-05-05 12:02 -0.54693 21.26272 34848 ft 509 kts 330°
2026-05-05 12:02 -0.48538 21.22860 34847 ft 510 kts 330°
2026-05-05 12:03 -0.42383 21.19447 34847 ft 509 kts 330°
2026-05-05 12:03 -0.36197 21.16022 34848 ft 510 kts 330°
2026-05-05 12:04 -0.29969 21.12569 34848 ft 510 kts 330°
2026-05-05 12:04 -0.23764 21.09135 34852 ft 511 kts 330°
2026-05-05 12:05 -0.17566 21.05693 34855 ft 510 kts 330°
2026-05-05 12:05 -0.11374 21.02250 34852 ft 510 kts 330°
2026-05-05 12:06 -0.05190 20.98813 34853 ft 510 kts 330°
2026-05-05 12:06 0.01003 20.95372 34853 ft 510 kts 330°
2026-05-05 12:07 0.07202 20.91930 34851 ft 510 kts 330°
2026-05-05 12:07 0.13393 20.88494 34849 ft 510 kts 330°
2026-05-05 12:08 0.19595 20.85052 34852 ft 511 kts 330°
2026-05-05 12:08 0.25791 20.81610 34850 ft 510 kts 330°
2026-05-05 12:09 0.32000 20.78164 34850 ft 510 kts 330°
2026-05-05 12:09 0.38163 20.74740 34854 ft 511 kts 330°
2026-05-05 12:10 0.44361 20.71302 34848 ft 511 kts 330°
2026-05-05 12:10 0.50563 20.67863 34850 ft 512 kts 330°
2026-05-05 12:11 0.56785 20.64412 34851 ft 511 kts 330°
2026-05-05 12:11 0.63000 20.60964 34848 ft 512 kts 330°
2026-05-05 12:12 0.69220 20.57505 34852 ft 511 kts 330°
2026-05-05 12:12 0.75450 20.54044 34856 ft 513 kts 330°
2026-05-05 12:13 0.81661 20.50593 34855 ft 511 kts 330°
2026-05-05 12:13 0.87878 20.47146 34847 ft 513 kts 330°
2026-05-05 12:14 0.94079 20.43699 34853 ft 509 kts 330°
2026-05-05 12:14 1.00246 20.40279 34854 ft 508 kts 330°
2026-05-05 12:15 1.06423 20.36852 34851 ft 508 kts 330°
2026-05-05 12:15 1.12586 20.33429 34853 ft 505 kts 331°
2026-05-05 12:16 1.18723 20.30025 34854 ft 505 kts 331°
2026-05-05 12:16 1.24821 20.26643 34854 ft 505 kts 331°
2026-05-05 12:17 1.30952 20.23241 34852 ft 505 kts 331°
2026-05-05 12:17 1.37083 20.19841 34853 ft 505 kts 331°
2026-05-05 12:18 1.43205 20.16443 34854 ft 505 kts 331°
2026-05-05 12:18 1.49316 20.13050 34848 ft 502 kts 330°
2026-05-05 12:19 1.55399 20.09677 34850 ft 501 kts 330°
2026-05-05 12:19 1.61446 20.06321 34847 ft 500 kts 330°
2026-05-05 12:20 1.67527 20.02948 34845 ft 501 kts 330°
2026-05-05 12:20 1.73604 19.99581 34844 ft 500 kts 330°
2026-05-05 12:21 1.79657 19.96225 34846 ft 501 kts 330°
2026-05-05 12:21 1.85729 19.92850 34847 ft 497 kts 331°
2026-05-05 12:22 1.91779 19.89500 34840 ft 498 kts 331°
2026-05-05 12:22 1.97844 19.86142 34846 ft 498 kts 331°
2026-05-05 12:23 2.03869 19.82806 34846 ft 497 kts 331°
2026-05-05 12:23 2.09935 19.79449 34841 ft 498 kts 331°
2026-05-05 12:24 2.16018 19.76086 34843 ft 501 kts 331°
2026-05-05 12:24 2.22112 19.72705 34845 ft 501 kts 331°
2026-05-05 12:25 2.28118 19.69378 34846 ft 500 kts 331°
2026-05-05 12:25 2.34138 19.66017 34847 ft 501 kts 331°
2026-05-05 12:26 2.40199 19.62630 34848 ft 500 kts 331°
2026-05-05 12:26 2.46267 19.59243 34854 ft 500 kts 331°
2026-05-05 12:27 2.52305 19.55876 34855 ft 500 kts 331°
2026-05-05 12:27 2.58407 19.52473 34853 ft 498 kts 331°
2026-05-05 12:28 2.64426 19.49117 34852 ft 499 kts 331°
2026-05-05 12:28 2.70485 19.45732 34853 ft 498 kts 331°
2026-05-05 12:29 2.76542 19.42355 34851 ft 500 kts 331°
2026-05-05 12:29 2.82628 19.38963 34852 ft 500 kts 331°
2026-05-05 12:30 2.88702 19.35578 34863 ft 500 kts 331°
2026-05-05 12:30 2.94760 19.32202 34861 ft 496 kts 331°
2026-05-05 12:31 3.00766 19.28856 34853 ft 495 kts 331°
2026-05-05 12:31 3.06787 19.25502 34854 ft 497 kts 331°
2026-05-05 12:32 3.12808 19.22144 34853 ft 495 kts 331°
2026-05-05 12:32 3.18819 19.18794 34855 ft 496 kts 331°
2026-05-05 12:33 3.24842 19.15436 34855 ft 496 kts 331°
2026-05-05 12:33 3.30848 19.12088 34856 ft 495 kts 331°
2026-05-05 12:34 3.36868 19.08734 34858 ft 496 kts 331°
2026-05-05 12:34 3.42892 19.05374 34859 ft 494 kts 331°
2026-05-05 12:35 3.48916 19.02018 34857 ft 496 kts 331°
2026-05-05 12:35 3.54938 18.98661 34861 ft 494 kts 331°
2026-05-05 12:36 3.60902 18.95351 34860 ft 495 kts 331°
2026-05-05 12:36 3.66956 18.91994 34859 ft 494 kts 331°
2026-05-05 12:37 3.72957 18.88666 34859 ft 492 kts 331°
2026-05-05 12:37 3.78925 18.85356 34865 ft 494 kts 331°
2026-05-05 12:38 3.84925 18.82028 34867 ft 492 kts 331°
2026-05-05 12:38 3.90927 18.78701 34867 ft 494 kts 331°
2026-05-05 12:39 3.96940 18.75369 34872 ft 494 kts 331°
2026-05-05 12:39 4.02956 18.72014 34868 ft 495 kts 331°
2026-05-05 12:40 4.08971 18.68640 34868 ft 496 kts 331°
2026-05-05 12:40 4.14987 18.65269 34867 ft 495 kts 331°
2026-05-05 12:41 4.21009 18.61899 34874 ft 497 kts 331°
2026-05-05 12:41 4.26997 18.58547 34877 ft 495 kts 331°
2026-05-05 12:42 4.33008 18.55183 34875 ft 496 kts 331°
2026-05-05 12:42 4.39111 18.51945 34879 ft 495 kts 335°
2026-05-05 12:43 4.45389 18.49122 34876 ft 495 kts 336°
2026-05-05 12:43 4.51704 18.46339 34876 ft 495 kts 336°
2026-05-05 12:44 4.58001 18.43562 34873 ft 495 kts 336°
2026-05-05 12:44 4.64316 18.40778 34871 ft 495 kts 336°
2026-05-05 12:45 4.70613 18.37995 34869 ft 495 kts 336°
2026-05-05 12:45 4.76913 18.35217 34872 ft 494 kts 335°
2026-05-05 12:46 4.83198 18.32436 34862 ft 494 kts 335°
2026-05-05 12:46 4.89504 18.29649 34866 ft 494 kts 335°
2026-05-05 12:47 4.95780 18.26872 34858 ft 495 kts 335°
2026-05-05 12:47 5.02086 18.24086 34862 ft 494 kts 335°
2026-05-05 12:48 5.08378 18.21306 34852 ft 495 kts 335°
2026-05-05 12:48 5.14688 18.18517 34857 ft 495 kts 335°
2026-05-05 12:49 5.19921 18.16198 34855 ft 495 kts 335°
2026-05-05 12:49 5.26231 18.13404 34857 ft 496 kts 335°
2026-05-05 12:50 5.32535 18.10615 34854 ft 495 kts 335°
2026-05-05 12:50 5.38856 18.07815 34854 ft 496 kts 335°
2026-05-05 12:51 5.45161 18.05023 34849 ft 496 kts 335°
2026-05-05 12:51 5.51486 18.02225 34848 ft 496 kts 335°
2026-05-05 12:52 5.57791 17.99434 34847 ft 496 kts 335°
2026-05-05 12:52 5.64125 17.96629 34849 ft 497 kts 335°
2026-05-05 12:53 5.70440 17.93832 34840 ft 496 kts 335°
2026-05-05 12:53 5.76724 17.91050 34842 ft 496 kts 335°
2026-05-05 12:54 5.86219 17.86842 34836 ft 499 kts 335°
2026-05-05 12:55 5.92579 17.84026 34836 ft 499 kts 336°
2026-05-05 12:55 5.98942 17.81206 34833 ft 500 kts 335°
2026-05-05 12:56 6.05291 17.78393 34830 ft 499 kts 335°
2026-05-05 12:56 6.11651 17.75571 34827 ft 499 kts 335°
2026-05-05 12:57 6.18006 17.72753 34828 ft 498 kts 335°
2026-05-05 12:57 6.24338 17.69943 34817 ft 497 kts 336°
2026-05-05 12:58 6.30666 17.67137 34814 ft 496 kts 336°
2026-05-05 12:58 6.36986 17.64332 34816 ft 497 kts 336°
2026-05-05 12:59 6.43301 17.61529 34807 ft 496 kts 336°
2026-05-05 12:59 6.49618 17.58723 34813 ft 497 kts 336°
2026-05-05 13:00 6.59066 17.54530 34808 ft 494 kts 335°
2026-05-05 13:01 6.71635 17.48936 34805 ft 494 kts 335°
2026-05-05 13:01 6.77877 17.46151 34811 ft 493 kts 335°
2026-05-05 13:02 6.84192 17.43335 34803 ft 494 kts 335°
2026-05-05 13:02 6.90437 17.40554 34805 ft 493 kts 335°
2026-05-05 13:03 6.96717 17.37758 34798 ft 496 kts 335°
2026-05-05 13:03 7.03024 17.34948 34799 ft 496 kts 335°
2026-05-05 13:04 7.09329 17.32136 34803 ft 496 kts 335°
2026-05-05 13:04 7.15645 17.29321 34805 ft 496 kts 335°
2026-05-05 13:05 7.21955 17.26509 34802 ft 496 kts 335°
2026-05-05 13:05 7.28268 17.23698 34799 ft 496 kts 335°
2026-05-05 13:06 7.34575 17.20881 34796 ft 496 kts 335°
2026-05-05 13:06 7.40893 17.18063 34792 ft 496 kts 335°
2026-05-05 13:07 7.47212 17.15248 34794 ft 496 kts 335°
2026-05-05 13:07 7.53527 17.12436 34793 ft 496 kts 335°
2026-05-05 13:08 7.59834 17.09626 34787 ft 496 kts 335°
2026-05-05 13:08 7.66101 17.06826 34787 ft 496 kts 335°
2026-05-05 13:09 7.72412 17.03999 34785 ft 495 kts 335°
2026-05-05 13:09 7.78708 17.01183 34784 ft 495 kts 335°
2026-05-05 13:10 7.84998 16.98372 34779 ft 495 kts 335°
2026-05-05 13:10 7.91308 16.95553 34780 ft 495 kts 335°
2026-05-05 13:11 7.97597 16.92742 34779 ft 495 kts 335°
2026-05-05 13:11 8.03889 16.89921 34783 ft 496 kts 335°
2026-05-05 13:12 8.10192 16.87092 34780 ft 496 kts 335°
2026-05-05 13:12 8.16506 16.84260 34779 ft 496 kts 335°
2026-05-05 13:13 8.22814 16.81433 34782 ft 496 kts 335°
2026-05-05 13:13 8.29122 16.78606 34780 ft 496 kts 335°
2026-05-05 13:14 8.35426 16.75779 34790 ft 496 kts 335°
2026-05-05 13:14 8.41728 16.72954 34788 ft 495 kts 335°
2026-05-05 13:15 8.48026 16.70128 34782 ft 495 kts 335°
2026-05-05 13:15 8.54319 16.67303 34780 ft 494 kts 335°
2026-05-05 13:16 8.60595 16.64485 34779 ft 494 kts 335°
2026-05-05 13:16 8.66870 16.61666 34785 ft 494 kts 335°
2026-05-05 13:17 8.73103 16.58865 34780 ft 494 kts 335°
2026-05-05 13:17 8.79385 16.56041 34780 ft 495 kts 335°
2026-05-05 13:18 8.85675 16.53213 34779 ft 495 kts 335°
2026-05-05 13:18 8.91966 16.50384 34780 ft 495 kts 335°
2026-05-05 13:19 8.98256 16.47554 34779 ft 495 kts 335°
2026-05-05 13:19 9.04550 16.44722 34777 ft 495 kts 335°
2026-05-05 13:20 9.10841 16.41890 34779 ft 495 kts 335°
2026-05-05 13:20 9.17133 16.39056 34772 ft 495 kts 335°
2026-05-05 13:21 9.23423 16.36222 34774 ft 495 kts 335°
2026-05-05 13:21 9.29722 16.33384 34777 ft 496 kts 335°
2026-05-05 13:22 9.36031 16.30543 34766 ft 496 kts 335°
2026-05-05 13:22 9.42338 16.27699 34765 ft 496 kts 334°
2026-05-05 13:23 9.48630 16.24853 34759 ft 495 kts 334°
2026-05-05 13:23 9.54872 16.22029 34760 ft 494 kts 334°
2026-05-05 13:24 9.61151 16.19189 34751 ft 494 kts 334°
2026-05-05 13:24 9.67438 16.16347 34752 ft 495 kts 334°
2026-05-05 13:25 9.73726 16.13505 34748 ft 494 kts 334°
2026-05-05 13:25 9.80003 16.10665 34747 ft 495 kts 334°
2026-05-05 13:26 9.86264 16.07834 34743 ft 493 kts 335°
2026-05-05 13:26 9.92538 16.04993 34731 ft 494 kts 334°
2026-05-05 13:27 9.98810 16.02155 34725 ft 493 kts 334°
2026-05-05 13:27 10.05065 15.99321 34718 ft 494 kts 335°
2026-05-05 13:28 10.11347 15.96478 34718 ft 494 kts 335°
2026-05-05 13:28 10.17631 15.93633 34714 ft 494 kts 335°
2026-05-05 13:29 10.23909 15.90789 34706 ft 494 kts 335°
2026-05-05 13:29 10.30171 15.87944 34705 ft 494 kts 335°
2026-05-05 13:30 10.36439 15.85091 34696 ft 494 kts 335°
2026-05-05 13:30 10.42712 15.82237 34696 ft 494 kts 335°
2026-05-05 13:31 10.48978 15.79388 34689 ft 494 kts 335°
2026-05-05 13:31 10.55254 15.76533 34686 ft 494 kts 335°
2026-05-05 13:32 10.61526 15.73680 34683 ft 494 kts 335°
2026-05-05 13:32 10.67789 15.70829 34683 ft 494 kts 335°
2026-05-05 13:33 10.74052 15.67978 34683 ft 494 kts 335°
2026-05-05 13:33 10.80331 15.65117 34683 ft 494 kts 335°
2026-05-05 13:34 10.86591 15.62265 34683 ft 493 kts 335°
2026-05-05 13:34 10.92830 15.59422 34687 ft 490 kts 334°
2026-05-05 13:35 10.99001 15.56607 34683 ft 489 kts 334°
2026-05-05 13:35 11.05246 15.53755 34686 ft 489 kts 334°
2026-05-05 13:36 11.11419 15.50936 34686 ft 489 kts 334°
2026-05-05 13:36 11.17627 15.48100 34686 ft 489 kts 334°
2026-05-05 13:37 11.23837 15.45261 34686 ft 489 kts 334°
2026-05-05 13:37 11.30040 15.42428 34687 ft 488 kts 334°
2026-05-05 13:38 11.36236 15.39594 34689 ft 488 kts 334°
2026-05-05 13:38 11.42426 15.36759 34688 ft 488 kts 334°
2026-05-05 13:39 11.47567 15.34404 34690 ft 488 kts 334°
2026-05-05 13:39 11.53757 15.31569 34696 ft 487 kts 334°
2026-05-05 13:40 11.59938 15.28736 34694 ft 488 kts 334°
2026-05-05 13:40 11.66125 15.25902 34698 ft 485 kts 334°
2026-05-05 13:41 11.72280 15.23080 34698 ft 484 kts 334°
2026-05-05 13:41 11.78418 15.20263 34702 ft 484 kts 334°
2026-05-05 13:42 11.84564 15.17441 34701 ft 484 kts 334°
2026-05-05 13:42 11.90669 15.14638 34702 ft 484 kts 334°
2026-05-05 13:43 11.96805 15.11819 34746 ft 484 kts 334°
2026-05-05 13:43 12.02977 15.08982 34766 ft 482 kts 334°
2026-05-05 13:44 12.09048 15.06191 34771 ft 482 kts 334°
2026-05-05 13:44 12.15289 15.03583 34770 ft 483 kts 339°
2026-05-05 13:45 12.21664 15.01521 34766 ft 484 kts 341°
2026-05-05 13:45 12.28113 14.99552 34703 ft 484 kts 341°
2026-05-05 13:46 12.34558 14.97585 34706 ft 484 kts 341°
2026-05-05 13:46 12.40986 14.95620 34711 ft 481 kts 341°
2026-05-05 13:47 12.47387 14.93661 34706 ft 480 kts 341°
2026-05-05 13:47 12.53780 14.91703 34704 ft 479 kts 341°
2026-05-05 13:48 12.60158 14.89749 34702 ft 478 kts 341°
2026-05-05 13:48 12.66541 14.87792 34706 ft 478 kts 341°
2026-05-05 13:49 12.72909 14.85839 34708 ft 477 kts 341°
2026-05-05 13:49 12.79259 14.83891 34713 ft 476 kts 341°
2026-05-05 13:50 12.85604 14.81941 34713 ft 475 kts 341°
2026-05-05 13:50 12.91934 14.79995 34710 ft 475 kts 341°
2026-05-05 13:51 12.98272 14.78046 34711 ft 475 kts 341°
2026-05-05 13:51 13.04598 14.76100 34711 ft 475 kts 341°
2026-05-05 13:52 13.10939 14.74152 34717 ft 475 kts 341°
2026-05-05 13:52 13.17222 14.72216 34714 ft 474 kts 341°
2026-05-05 13:53 13.23533 14.70270 34714 ft 474 kts 341°
2026-05-05 13:53 13.29855 14.68321 34713 ft 474 kts 341°
2026-05-05 13:54 13.36178 14.66370 34716 ft 474 kts 341°
2026-05-05 13:54 13.42500 14.64419 34725 ft 474 kts 341°
2026-05-05 13:55 13.48816 14.62470 34718 ft 474 kts 341°
2026-05-05 13:55 13.55138 14.60517 34718 ft 474 kts 341°
2026-05-05 13:56 13.61442 14.58570 34716 ft 474 kts 341°
2026-05-05 13:56 13.67766 14.56617 34718 ft 474 kts 340°
2026-05-05 13:57 13.74074 14.54667 34716 ft 474 kts 340°
2026-05-05 13:57 13.80387 14.52714 34733 ft 473 kts 340°
2026-05-05 13:58 13.86688 14.50763 34725 ft 472 kts 340°
2026-05-05 13:58 13.92985 14.48811 34723 ft 472 kts 340°
2026-05-05 13:59 14.02420 14.45885 34724 ft 473 kts 340°
2026-05-05 14:00 14.10802 14.43283 34727 ft 472 kts 340°
2026-05-05 14:00 14.18158 14.40999 34726 ft 472 kts 340°
2026-05-05 14:01 14.24407 14.39058 34733 ft 472 kts 340°
2026-05-05 14:01 14.30705 14.37101 34729 ft 472 kts 340°
2026-05-05 14:02 14.37003 14.35144 34730 ft 472 kts 340°
2026-05-05 14:02 14.43294 14.33182 34731 ft 472 kts 340°
2026-05-05 14:03 14.49587 14.31215 34739 ft 472 kts 340°
2026-05-05 14:03 14.55876 14.29252 34734 ft 472 kts 340°
2026-05-05 14:04 14.62152 14.27292 34732 ft 472 kts 340°
2026-05-05 14:04 14.68432 14.25331 34739 ft 472 kts 340°
2026-05-05 14:05 14.74718 14.23367 34742 ft 472 kts 340°
2026-05-05 14:05 14.80994 14.21406 34745 ft 472 kts 340°
2026-05-05 14:06 14.87280 14.19441 34735 ft 471 kts 340°
2026-05-05 14:06 14.93559 14.17476 34740 ft 471 kts 340°
2026-05-05 14:07 14.99822 14.15514 34752 ft 471 kts 340°
2026-05-05 14:07 15.06081 14.13553 34745 ft 471 kts 340°
2026-05-05 14:08 15.12358 14.11585 34745 ft 471 kts 340°
2026-05-05 14:08 15.18634 14.09616 34747 ft 471 kts 340°
2026-05-05 14:09 15.24864 14.07663 34772 ft 471 kts 340°
2026-05-05 14:09 15.27933 14.06699 34986 ft 470 kts 340°
2026-05-05 14:09 15.31049 14.05719 35212 ft 470 kts 340°
2026-05-05 14:10 15.34176 14.04735 35453 ft 470 kts 340°
2026-05-05 14:10 15.37303 14.03751 35699 ft 470 kts 340°
2026-05-05 14:10 15.40436 14.02765 35936 ft 470 kts 339°
2026-05-05 14:10 15.43518 14.01795 36182 ft 469 kts 339°
2026-05-05 14:11 15.46640 14.00812 36432 ft 469 kts 339°
2026-05-05 14:11 15.49742 13.99835 36679 ft 469 kts 339°
2026-05-05 14:11 15.56011 13.97860 36760 ft 471 kts 339°
2026-05-05 14:12 15.62266 13.95891 36763 ft 469 kts 339°
2026-05-05 14:12 15.68494 13.93925 36757 ft 469 kts 339°
2026-05-05 14:13 15.74737 13.91954 36763 ft 469 kts 339°
2026-05-05 14:13 15.80978 13.89984 36756 ft 469 kts 339°
2026-05-05 14:14 15.87216 13.88013 36760 ft 469 kts 339°
2026-05-05 14:14 15.93449 13.86046 36768 ft 467 kts 339°
2026-05-05 14:15 15.99652 13.84084 36766 ft 467 kts 339°
2026-05-05 14:15 16.05866 13.82116 36767 ft 467 kts 339°
2026-05-05 14:16 16.12071 13.80150 36762 ft 467 kts 339°
2026-05-05 14:16 16.18269 13.78187 36765 ft 467 kts 339°
2026-05-05 14:17 16.24482 13.76217 36765 ft 467 kts 339°
2026-05-05 14:17 16.30677 13.74256 36777 ft 465 kts 338°
2026-05-05 14:18 16.36870 13.72289 36767 ft 465 kts 338°
2026-05-05 14:18 16.43056 13.70323 36771 ft 465 kts 338°
2026-05-05 14:19 16.49194 13.68375 36776 ft 465 kts 338°
2026-05-05 14:19 16.55387 13.66406 36774 ft 465 kts 338°
2026-05-05 14:20 16.61568 13.64437 36782 ft 464 kts 338°
2026-05-05 14:20 16.67722 13.62471 36781 ft 462 kts 338°
2026-05-05 14:21 16.73866 13.60508 36771 ft 462 kts 338°
2026-05-05 14:21 16.80023 13.58543 36783 ft 462 kts 338°
2026-05-05 14:22 16.86176 13.56577 36776 ft 463 kts 338°
2026-05-05 14:22 16.92331 13.54611 36781 ft 463 kts 338°
2026-05-05 14:23 16.98469 13.52652 36780 ft 460 kts 338°
2026-05-05 14:23 17.04585 13.50695 36786 ft 460 kts 338°
2026-05-05 14:24 17.10695 13.48738 36779 ft 460 kts 338°
2026-05-05 14:24 17.16822 13.46774 36785 ft 460 kts 338°
2026-05-05 14:25 17.22942 13.44814 36790 ft 461 kts 338°
2026-05-05 14:25 17.29076 13.42847 36811 ft 460 kts 338°
2026-05-05 14:26 17.35177 13.40892 36789 ft 459 kts 338°
2026-05-05 14:26 17.41228 13.38949 36786 ft 459 kts 338°
2026-05-05 14:27 17.47327 13.36991 36788 ft 459 kts 338°
2026-05-05 14:27 17.53434 13.35026 36787 ft 459 kts 338°
2026-05-05 14:28 17.59536 13.33055 36788 ft 459 kts 338°
2026-05-05 14:28 17.65639 13.31085 36788 ft 459 kts 338°
2026-05-05 14:29 17.70748 13.29436 36788 ft 459 kts 338°
2026-05-05 14:29 17.76850 13.27467 36788 ft 459 kts 338°
2026-05-05 14:30 17.82948 13.25498 36789 ft 459 kts 338°
2026-05-05 14:30 17.89052 13.23526 36790 ft 459 kts 338°
2026-05-05 14:31 17.95142 13.21557 36792 ft 459 kts 338°
2026-05-05 14:31 18.01167 13.19609 36793 ft 458 kts 338°
2026-05-05 14:32 18.07252 13.17639 36789 ft 458 kts 338°
2026-05-05 14:32 18.13315 13.15674 36790 ft 458 kts 338°
2026-05-05 14:33 18.19397 13.13703 36791 ft 457 kts 338°
2026-05-05 14:33 18.25480 13.11728 36790 ft 459 kts 338°
2026-05-05 14:34 18.31592 13.09744 36789 ft 459 kts 338°
2026-05-05 14:34 18.37683 13.07766 36787 ft 459 kts 338°
2026-05-05 14:35 18.43792 13.05780 36785 ft 459 kts 338°
2026-05-05 14:35 18.49867 13.03803 36786 ft 459 kts 338°
2026-05-05 14:36 18.55964 13.01818 36786 ft 459 kts 338°
2026-05-05 14:36 18.62042 12.99838 36784 ft 459 kts 338°
2026-05-05 14:37 18.68138 12.97852 36800 ft 459 kts 338°
2026-05-05 14:37 18.74214 12.95871 36788 ft 458 kts 338°
2026-05-05 14:38 18.80290 12.93888 36784 ft 458 kts 338°
2026-05-05 14:38 18.86387 12.91898 36785 ft 458 kts 338°
2026-05-05 14:39 18.92459 12.89868 36780 ft 457 kts 335°
2026-05-05 14:39 18.98320 12.87384 36777 ft 453 kts 330°
2026-05-05 14:40 19.03954 12.84325 36786 ft 450 kts 326°
2026-05-05 14:40 19.09308 12.80957 36781 ft 449 kts 324°
2026-05-05 14:41 19.14638 12.77569 36777 ft 449 kts 324°
2026-05-05 14:41 19.19951 12.74190 36776 ft 450 kts 324°
2026-05-05 14:42 19.25342 12.70761 36774 ft 450 kts 324°
2026-05-05 14:42 19.30647 12.67383 36774 ft 450 kts 324°
2026-05-05 14:43 19.36031 12.63954 36792 ft 450 kts 324°
2026-05-05 14:43 19.41400 12.60532 36776 ft 450 kts 324°
2026-05-05 14:44 19.46762 12.57111 36776 ft 450 kts 324°
2026-05-05 14:44 19.52117 12.53692 36776 ft 450 kts 324°
2026-05-05 14:45 19.57471 12.50271 36773 ft 450 kts 324°
2026-05-05 14:45 19.62818 12.46851 36770 ft 450 kts 324°
2026-05-05 14:46 19.68179 12.43420 36767 ft 450 kts 324°
2026-05-05 14:46 19.73539 12.39988 36768 ft 450 kts 324°
2026-05-05 14:47 19.78898 12.36553 36769 ft 451 kts 324°
2026-05-05 14:47 19.84264 12.33110 36762 ft 451 kts 324°
2026-05-05 14:48 19.89639 12.29660 36766 ft 451 kts 324°
2026-05-05 14:48 19.95006 12.26212 36766 ft 451 kts 324°
2026-05-05 14:49 20.00355 12.22773 36763 ft 451 kts 324°
2026-05-05 14:49 20.05731 12.19313 36781 ft 451 kts 324°
2026-05-05 14:50 20.11077 12.15871 36764 ft 450 kts 324°
2026-05-05 14:50 20.16436 12.12417 36761 ft 450 kts 324°
2026-05-05 14:51 20.21728 12.09003 36763 ft 450 kts 324°
2026-05-05 14:51 20.26985 12.05609 36764 ft 450 kts 324°
2026-05-05 14:52 20.32313 12.02167 36759 ft 451 kts 324°
2026-05-05 14:52 20.37651 11.98715 36760 ft 452 kts 324°
2026-05-05 14:53 20.42994 11.95261 36769 ft 451 kts 324°
2026-05-05 14:53 20.48352 11.91793 36766 ft 451 kts 324°
2026-05-05 14:54 20.53706 11.88325 36758 ft 451 kts 324°
2026-05-05 14:54 20.59065 11.84846 36758 ft 451 kts 324°
2026-05-05 14:55 20.64416 11.81362 36758 ft 451 kts 324°
2026-05-05 14:55 20.69776 11.77873 36758 ft 451 kts 324°
2026-05-05 14:56 20.75106 11.74404 36771 ft 451 kts 324°
2026-05-05 14:56 20.80454 11.70921 36763 ft 450 kts 324°
2026-05-05 14:57 20.85782 11.67448 36755 ft 450 kts 324°
2026-05-05 14:57 20.91134 11.63958 36761 ft 452 kts 324°
2026-05-05 14:58 20.96502 11.60453 36763 ft 452 kts 324°
2026-05-05 14:58 21.01862 11.56953 36760 ft 452 kts 324°
2026-05-05 14:59 21.07227 11.53447 36759 ft 452 kts 324°
2026-05-05 14:59 21.12551 11.49963 36757 ft 452 kts 324°
2026-05-05 15:00 21.17044 11.47014 36763 ft 452 kts 324°
2026-05-05 15:00 21.23276 11.42921 36761 ft 452 kts 324°
2026-05-05 15:01 21.28619 11.39412 36759 ft 452 kts 324°
2026-05-05 15:01 21.33989 11.35884 36758 ft 452 kts 324°
2026-05-05 15:02 21.39351 11.32359 36757 ft 452 kts 324°
2026-05-05 15:02 21.44711 11.28831 36756 ft 452 kts 324°
2026-05-05 15:03 21.50071 11.25302 36768 ft 452 kts 324°
2026-05-05 15:03 21.55429 11.21772 36752 ft 452 kts 324°
2026-05-05 15:04 21.60784 11.18239 36754 ft 452 kts 324°
2026-05-05 15:04 21.66137 11.14705 36758 ft 452 kts 324°
2026-05-05 15:05 21.74125 11.09426 36771 ft 452 kts 324°
2026-05-05 15:06 21.79481 11.05884 36765 ft 452 kts 324°
2026-05-05 15:06 21.84851 11.02327 36763 ft 452 kts 324°
2026-05-05 15:07 21.90204 10.98778 36759 ft 452 kts 324°
2026-05-05 15:07 21.95517 10.95253 36760 ft 451 kts 324°
2026-05-05 15:08 22.00849 10.91712 36763 ft 451 kts 324°
2026-05-05 15:08 22.06163 10.88181 36761 ft 452 kts 324°
2026-05-05 15:09 22.11503 10.84629 36769 ft 451 kts 324°
2026-05-05 15:09 22.16847 10.81071 36765 ft 451 kts 324°
2026-05-05 15:10 22.22188 10.77512 36766 ft 451 kts 324°
2026-05-05 15:10 22.27526 10.73951 36767 ft 451 kts 324°
2026-05-05 15:11 22.32861 10.70390 36771 ft 451 kts 324°
2026-05-05 15:11 22.38202 10.66822 36770 ft 451 kts 324°
2026-05-05 15:12 22.43541 10.63252 36793 ft 451 kts 324°
2026-05-05 15:12 22.48856 10.59693 36777 ft 449 kts 324°
2026-05-05 15:13 22.54177 10.56133 36768 ft 449 kts 324°
2026-05-05 15:13 22.59477 10.52582 36773 ft 450 kts 324°
2026-05-05 15:14 22.64792 10.49042 36775 ft 450 kts 325°
2026-05-05 15:14 22.70213 10.45650 36776 ft 451 kts 326°
2026-05-05 15:15 22.75656 10.42270 36777 ft 451 kts 326°
2026-05-05 15:15 22.80165 10.39460 36790 ft 449 kts 326°
2026-05-05 15:16 22.85956 10.35841 36784 ft 448 kts 326°
2026-05-05 15:16 22.91363 10.32457 36784 ft 448 kts 326°
2026-05-05 15:17 22.95890 10.29619 36781 ft 448 kts 326°
2026-05-05 15:17 23.01242 10.26262 36786 ft 448 kts 326°
2026-05-05 15:18 23.06644 10.22870 36783 ft 448 kts 326°
2026-05-05 15:18 23.12040 10.19479 36796 ft 447 kts 326°
2026-05-05 15:19 23.17423 10.16094 36784 ft 447 kts 326°
2026-05-05 15:19 23.22808 10.12702 36785 ft 447 kts 326°
2026-05-05 15:20 23.28184 10.09313 36787 ft 447 kts 326°
2026-05-05 15:20 23.33565 10.05919 36785 ft 447 kts 326°
2026-05-05 15:21 23.38578 10.02753 36785 ft 447 kts 326°
2026-05-05 15:21 23.43945 9.99362 36804 ft 447 kts 326°
2026-05-05 15:22 23.49311 9.95968 36792 ft 445 kts 325°
2026-05-05 15:22 23.54668 9.92575 36794 ft 445 kts 325°
2026-05-05 15:23 23.60025 9.89179 36790 ft 445 kts 325°
2026-05-05 15:23 23.65375 9.85786 36788 ft 445 kts 325°
2026-05-05 15:24 23.70729 9.82386 36789 ft 446 kts 325°
2026-05-05 15:24 23.76096 9.78975 36814 ft 446 kts 325°
2026-05-05 15:25 23.81462 9.75562 36801 ft 445 kts 325°
2026-05-05 15:25 23.86812 9.72154 36809 ft 445 kts 325°
2026-05-05 15:26 23.92167 9.68741 36810 ft 445 kts 325°
2026-05-05 15:26 23.97517 9.65329 36812 ft 445 kts 325°
2026-05-05 15:27 24.02866 9.61914 36846 ft 445 kts 325°
2026-05-05 15:27 24.08221 9.58493 36887 ft 445 kts 325°
2026-05-05 15:28 24.13561 9.55080 36939 ft 444 kts 325°
2026-05-05 15:28 24.18898 9.51661 36971 ft 444 kts 325°
2026-05-05 15:29 24.24373 9.48483 36990 ft 447 kts 330°
2026-05-05 15:29 24.30145 9.45843 36990 ft 451 kts 334°
2026-05-05 15:30 24.36130 9.43799 36988 ft 456 kts 340°
2026-05-05 15:30 24.42347 9.42288 36964 ft 459 kts 342°
2026-05-05 15:31 24.48609 9.40901 36932 ft 459 kts 342°
2026-05-05 15:31 24.54867 9.39518 36896 ft 459 kts 342°
2026-05-05 15:32 24.61125 9.38130 36836 ft 459 kts 342°
2026-05-05 15:32 24.67379 9.36741 36833 ft 459 kts 342°
2026-05-05 15:33 24.73638 9.35350 36854 ft 459 kts 342°
2026-05-05 15:33 24.79874 9.33962 36843 ft 458 kts 342°
2026-05-05 15:34 24.86115 9.32569 36843 ft 458 kts 342°
2026-05-05 15:34 24.92364 9.31174 36846 ft 458 kts 342°
2026-05-05 15:35 24.98613 9.29778 36841 ft 458 kts 342°
2026-05-05 15:35 25.04846 9.28385 36867 ft 458 kts 342°
2026-05-05 15:36 25.11090 9.26990 36834 ft 458 kts 342°
2026-05-05 15:36 25.17333 9.25589 36835 ft 458 kts 342°
2026-05-05 15:37 25.23541 9.24195 36812 ft 458 kts 342°
2026-05-05 15:37 25.29778 9.22795 36815 ft 458 kts 342°
2026-05-05 15:38 25.36027 9.21391 36807 ft 458 kts 341°
2026-05-05 15:38 25.42295 9.19982 36797 ft 460 kts 341°
2026-05-05 15:39 25.48574 9.18566 36778 ft 461 kts 341°
2026-05-05 15:39 25.54851 9.17150 36778 ft 460 kts 341°
2026-05-05 15:40 25.61121 9.15735 36766 ft 460 kts 341°
2026-05-05 15:40 25.67411 9.14315 36796 ft 460 kts 341°
2026-05-05 15:41 25.73687 9.12900 36762 ft 459 kts 341°
2026-05-05 15:41 25.79940 9.11482 36759 ft 459 kts 341°
2026-05-05 15:42 25.86197 9.10064 36753 ft 459 kts 341°
2026-05-05 15:42 25.92378 9.08666 36755 ft 458 kts 341°
2026-05-05 15:43 25.98573 9.07454 36773 ft 467 kts 349°
2026-05-05 15:43 26.05178 9.07516 36763 ft 473 kts 353°
2026-05-05 15:44 26.11719 9.07726 36758 ft 474 kts 353°
2026-05-05 15:44 26.18303 9.07912 36756 ft 473 kts 353°
2026-05-05 15:45 26.24882 9.08081 36755 ft 473 kts 353°
2026-05-05 15:45 26.31457 9.08243 36760 ft 474 kts 353°
2026-05-05 15:46 26.38042 9.08404 36746 ft 474 kts 353°
2026-05-05 15:46 26.44638 9.08565 36747 ft 474 kts 353°
2026-05-05 15:47 26.51239 9.08727 36741 ft 474 kts 353°
2026-05-05 15:47 26.57835 9.08888 36742 ft 474 kts 353°
2026-05-05 15:48 26.64448 9.09050 36741 ft 475 kts 353°
2026-05-05 15:48 26.71044 9.09213 36753 ft 474 kts 353°
2026-05-05 15:49 26.77624 9.09376 36748 ft 473 kts 353°
2026-05-05 15:49 26.84212 9.09539 36751 ft 474 kts 353°
2026-05-05 15:50 26.90798 9.09705 36760 ft 473 kts 353°
2026-05-05 15:50 26.97375 9.09870 36748 ft 473 kts 353°
2026-05-05 15:51 27.03950 9.10051 36737 ft 473 kts 353°
2026-05-05 15:51 27.10498 9.10255 36748 ft 473 kts 353°
2026-05-05 15:52 27.17035 9.10462 36749 ft 473 kts 353°
2026-05-05 15:52 27.23664 9.10671 36746 ft 472 kts 353°
2026-05-05 15:53 27.30192 9.10878 36742 ft 473 kts 353°
2026-05-05 15:53 27.36769 9.11087 36743 ft 472 kts 353°
2026-05-05 15:54 27.43343 9.11297 36738 ft 472 kts 353°
2026-05-05 15:54 27.49927 9.11505 36737 ft 472 kts 353°
2026-05-05 15:55 27.56493 9.11714 36746 ft 472 kts 353°
2026-05-05 15:55 27.63063 9.11923 36746 ft 473 kts 353°
2026-05-05 15:56 27.69631 9.12133 36745 ft 472 kts 353°
2026-05-05 15:56 27.76192 9.12342 36753 ft 472 kts 353°
2026-05-05 15:57 27.82776 9.12548 36752 ft 475 kts 354°
2026-05-05 15:57 27.89355 9.12765 36749 ft 475 kts 354°
2026-05-05 15:58 27.95958 9.12982 36750 ft 475 kts 354°
2026-05-05 15:58 28.02569 9.13198 36753 ft 475 kts 354°
2026-05-05 15:59 28.09118 9.13411 36758 ft 477 kts 353°
2026-05-05 15:59 28.15788 9.13615 36759 ft 478 kts 353°
2026-05-05 16:00 28.22389 9.13820 36751 ft 478 kts 353°
2026-05-05 16:00 28.29018 9.14031 36759 ft 478 kts 353°
2026-05-05 16:01 28.35672 9.14244 36766 ft 478 kts 353°
2026-05-05 16:01 28.42312 9.14462 36756 ft 479 kts 353°
2026-05-05 16:02 28.48967 9.14674 36758 ft 479 kts 353°
2026-05-05 16:02 28.55635 9.14887 36757 ft 479 kts 353°
2026-05-05 16:03 28.62279 9.15101 36763 ft 479 kts 353°
2026-05-05 16:03 28.68909 9.15320 36772 ft 478 kts 353°
2026-05-05 16:04 28.75553 9.15534 36764 ft 478 kts 353°
2026-05-05 16:04 28.82189 9.15748 36759 ft 478 kts 353°
2026-05-05 16:05 28.87713 9.15926 36762 ft 478 kts 353°
2026-05-05 16:05 28.94362 9.16141 36777 ft 478 kts 353°
2026-05-05 16:06 29.00999 9.16355 36758 ft 478 kts 353°
2026-05-05 16:06 29.07640 9.16571 36755 ft 478 kts 353°
2026-05-05 16:07 29.14293 9.16787 36756 ft 478 kts 353°
2026-05-05 16:07 29.20921 9.17004 36755 ft 478 kts 353°
2026-05-05 16:08 29.27572 9.17220 36758 ft 479 kts 353°
2026-05-05 16:08 29.34227 9.17439 36752 ft 479 kts 353°
2026-05-05 16:09 29.40886 9.17658 36749 ft 479 kts 353°
2026-05-05 16:09 29.47541 9.17877 36750 ft 479 kts 353°
2026-05-05 16:10 29.54195 9.18094 36763 ft 480 kts 353°
2026-05-05 16:10 29.60867 9.18313 36753 ft 481 kts 353°
2026-05-05 16:11 29.67546 9.18535 36745 ft 481 kts 353°
2026-05-05 16:12 29.80883 9.18979 36763 ft 481 kts 353°
2026-05-05 16:13 29.97540 9.19539 36747 ft 482 kts 353°
2026-05-05 16:13 30.04222 9.19762 36740 ft 482 kts 353°
2026-05-05 16:14 30.10929 9.19981 37203 ft 482 kts 353°
2026-05-05 16:14 30.17628 9.20203 37735 ft 481 kts 352°
2026-05-05 16:15 30.24297 9.20427 38306 ft 479 kts 352°
2026-05-05 16:15 30.30895 9.20648 38739 ft 478 kts 352°
2026-05-05 16:16 30.44209 9.21096 38759 ft 480 kts 352°
2026-05-05 16:17 30.54163 9.21426 38758 ft 480 kts 352°
2026-05-05 16:18 30.64158 9.21760 38777 ft 480 kts 352°
2026-05-05 16:19 30.74144 9.22099 38764 ft 479 kts 352°
2026-05-05 16:19 30.84080 9.22440 38768 ft 479 kts 352°
2026-05-05 16:20 30.97397 9.22898 38778 ft 479 kts 352°
2026-05-05 16:22 31.14076 9.23801 38775 ft 488 kts 359°
2026-05-05 16:23 31.27525 9.26316 38785 ft 490 kts 360°
2026-05-05 16:23 31.37605 9.28151 38782 ft 489 kts 359°
2026-05-05 16:24 31.44337 9.29363 38787 ft 490 kts 359°
2026-05-05 16:25 31.54395 9.31177 38793 ft 490 kts 359°
2026-05-05 16:25 31.64507 9.33009 38790 ft 490 kts 359°
2026-05-05 16:26 31.77981 9.35483 38796 ft 491 kts
2026-05-05 16:27 31.84677 9.36741 38794 ft 491 kts
2026-05-05 16:27 31.91440 9.38014 38795 ft 491 kts
2026-05-05 16:28 31.98184 9.39285 38803 ft 491 kts
2026-05-05 16:28 32.04959 9.40563 38812 ft 492 kts
2026-05-05 16:29 32.11704 9.41838 38802 ft 492 kts
2026-05-05 16:29 32.18466 9.43119 38809 ft 492 kts
2026-05-05 16:30 32.25219 9.44400 38806 ft 492 kts
2026-05-05 16:30 32.31985 9.45683 38814 ft 492 kts
2026-05-05 16:31 32.38702 9.46961 38805 ft 491 kts
2026-05-05 16:31 32.45432 9.48244 38807 ft 490 kts
2026-05-05 16:32 32.52148 9.49524 38816 ft 489 kts
2026-05-05 16:32 32.58885 9.50810 38822 ft 490 kts
2026-05-05 16:33 32.65623 9.52099 38819 ft 491 kts
2026-05-05 16:33 32.72363 9.53391 38818 ft 491 kts
2026-05-05 16:34 32.79067 9.54677 38825 ft 491 kts
2026-05-05 16:34 32.85820 9.55974 38832 ft 492 kts
2026-05-05 16:35 32.92563 9.57273 38828 ft 492 kts
2026-05-05 16:35 32.99304 9.58573 38829 ft 492 kts
2026-05-05 16:36 33.05999 9.59866 38836 ft 492 kts
2026-05-05 16:36 33.12756 9.61173 38839 ft 492 kts
2026-05-05 16:37 33.19505 9.62481 38839 ft 492 kts
2026-05-05 16:37 33.26223 9.63784 38839 ft 492 kts
2026-05-05 16:38 33.32983 9.65094 38892 ft 493 kts
2026-05-05 16:38 33.39770 9.66408 38851 ft 495 kts
2026-05-05 16:39 33.46564 9.67741 38864 ft 495 kts
2026-05-05 16:39 33.53339 9.69069 38894 ft 495 kts
2026-05-05 16:40 33.60110 9.70394 38916 ft 495 kts
2026-05-05 16:40 33.66876 9.71723 38919 ft 495 kts
2026-05-05 16:41 33.73685 9.73064 38925 ft 495 kts
2026-05-05 16:41 33.80482 9.74395 38888 ft 495 kts
2026-05-05 16:42 33.87284 9.75723 38900 ft 495 kts
2026-05-05 16:42 33.94042 9.77053 38906 ft 495 kts
2026-05-05 16:43 34.00780 9.78384 38907 ft 495 kts
2026-05-05 16:43 34.07572 9.79729 38911 ft 495 kts
2026-05-05 16:44 34.14357 9.81072 38922 ft 495 kts
2026-05-05 16:44 34.21152 9.82423 38913 ft 495 kts
2026-05-05 16:45 34.27934 9.83775 38910 ft 494 kts
2026-05-05 16:45 34.34706 9.85129 38946 ft 493 kts
2026-05-05 16:46 34.41448 9.86477 38926 ft 495 kts
2026-05-05 16:46 34.48181 9.88416 38924 ft 500 kts
2026-05-05 16:47 34.54904 9.90608 38923 ft 500 kts
2026-05-05 16:47 34.61617 9.92758 38938 ft 499 kts
2026-05-05 16:48 34.68321 9.94879 38920 ft 499 kts
2026-05-05 16:48 34.75041 9.96999 38916 ft 498 kts
2026-05-05 16:49 34.81765 9.99122 38929 ft 498 kts
2026-05-05 16:49 34.88426 10.01226 38932 ft 499 kts
2026-05-05 16:50 34.95140 10.03355 38925 ft 499 kts
2026-05-05 16:50 35.01877 10.05496 38921 ft 499 kts
2026-05-05 16:51 35.08594 10.07636 38943 ft 499 kts
2026-05-05 16:51 35.15298 10.09772 38928 ft 499 kts
2026-05-05 16:52 35.22008 10.11928 38927 ft 499 kts
2026-05-05 16:52 35.28728 10.14100 38935 ft 499 kts
2026-05-05 16:53 35.35443 10.16267 38943 ft 499 kts
2026-05-05 16:53 35.42152 10.18431 38934 ft 498 kts
2026-05-05 16:54 35.48850 10.20601 38928 ft 498 kts
2026-05-05 16:54 35.55536 10.22775 38942 ft 496 kts
2026-05-05 16:55 35.62224 10.24955 38949 ft 496 kts
2026-05-05 16:55 35.68892 10.27125 38948 ft 496 kts
2026-05-05 16:56 35.75566 10.29303 38952 ft 496 kts
2026-05-05 16:56 35.82240 10.31483 38973 ft 496 kts
2026-05-05 16:57 35.87796 10.33295 38979 ft 495 kts
2026-05-05 16:57 35.94445 10.35475 38983 ft 495 kts
2026-05-05 16:58 36.01103 10.37667 38987 ft 495 kts
2026-05-05 16:58 36.07764 10.39860 39004 ft 495 kts
2026-05-05 16:59 36.14394 10.42040 38991 ft 494 kts
2026-05-05 16:59 36.21038 10.44228 38987 ft 494 kts
2026-05-05 17:00 36.27677 10.46422 38984 ft 494 kts
2026-05-05 17:00 36.34266 10.48601 38990 ft 494 kts 10°
2026-05-05 17:01 36.40890 10.50803 38984 ft 494 kts 10°
2026-05-05 17:01 36.47531 10.53014 38982 ft 494 kts 10°
2026-05-05 17:02 36.54151 10.55220 38997 ft 494 kts 10°
2026-05-05 17:02 36.60785 10.57434 38978 ft 493 kts 10°
2026-05-05 17:03 36.67400 10.59654 38980 ft 492 kts 10°
2026-05-05 17:03 36.74019 10.61876 38981 ft 492 kts 10°
2026-05-05 17:04 36.80632 10.64087 38985 ft 492 kts 11°
2026-05-05 17:04 36.87228 10.66296 38974 ft 491 kts 11°
2026-05-05 17:05 36.93831 10.68517 38977 ft 492 kts 11°
2026-05-05 17:05 37.00434 10.70744 38980 ft 492 kts 11°
2026-05-05 17:06 37.07031 10.72972 38977 ft 492 kts 11°
2026-05-05 17:06 37.12928 10.74971 38978 ft 492 kts 11°
2026-05-05 17:07 37.19531 10.77212 38974 ft 492 kts 11°
2026-05-05 17:07 37.26148 10.79461 38979 ft 493 kts 11°
2026-05-05 17:08 37.32776 10.81721 38971 ft 493 kts 11°
2026-05-05 17:08 37.39404 10.83988 38975 ft 493 kts 11°
2026-05-05 17:09 37.46028 10.86249 39000 ft 493 kts 11°
2026-05-05 17:09 37.52645 10.88492 38985 ft 494 kts 11°
2026-05-05 17:10 37.59278 10.90749 38980 ft 494 kts 11°
2026-05-05 17:10 37.65866 10.93001 38982 ft 494 kts 11°
2026-05-05 17:11 37.72495 10.95268 38986 ft 494 kts 11°
2026-05-05 17:11 37.79192 10.97114 38984 ft 492 kts
2026-05-05 17:12 37.85910 10.98743 38983 ft 491 kts
2026-05-05 17:12 37.92641 11.00380 38981 ft 491 kts
2026-05-05 17:13 37.99346 11.02025 38987 ft 492 kts
2026-05-05 17:13 38.06061 11.03681 38988 ft 492 kts
2026-05-05 17:14 38.12762 11.05338 38988 ft 492 kts
2026-05-05 17:14 38.19423 11.06990 38990 ft 492 kts
2026-05-05 17:15 38.26146 11.08659 38991 ft 492 kts
2026-05-05 17:15 38.32861 11.10329 38992 ft 492 kts
2026-05-05 17:16 38.39584 11.12004 38995 ft 492 kts
2026-05-05 17:16 38.46313 11.13685 38984 ft 493 kts
2026-05-05 17:17 38.53037 11.15367 38983 ft 493 kts
2026-05-05 17:17 38.59763 11.17053 39002 ft 493 kts
2026-05-05 17:18 38.66493 11.18743 38992 ft 494 kts
2026-05-05 17:18 38.73221 11.20436 38999 ft 494 kts
2026-05-05 17:19 38.79953 11.22133 39000 ft 494 kts
2026-05-05 17:19 38.86692 11.23836 39005 ft 494 kts
2026-05-05 17:20 38.93444 11.25544 39006 ft 494 kts
2026-05-05 17:20 39.00193 11.27256 39002 ft 494 kts
2026-05-05 17:21 39.06906 11.28962 39018 ft 495 kts
2026-05-05 17:22 39.17016 11.31537 39005 ft 493 kts
2026-05-05 17:22 39.23718 11.33249 39012 ft 493 kts
2026-05-05 17:23 39.30432 11.34967 39022 ft 493 kts
2026-05-05 17:23 39.37153 11.36689 39015 ft 493 kts
2026-05-05 17:24 39.43852 11.38409 39015 ft 493 kts
2026-05-05 17:24 39.50569 11.40139 39020 ft 493 kts
2026-05-05 17:25 39.57289 11.41872 39015 ft 493 kts
2026-05-05 17:25 39.63968 11.43596 39013 ft 493 kts
2026-05-05 17:26 39.70685 11.45336 39024 ft 493 kts
2026-05-05 17:26 39.77429 11.47085 39019 ft 494 kts
2026-05-05 17:27 39.84164 11.48836 39017 ft 494 kts
2026-05-05 17:27 39.90902 11.50591 39030 ft 494 kts
2026-05-05 17:28 39.97644 11.52353 39017 ft 493 kts
2026-05-05 17:28 40.04367 11.54111 39017 ft 493 kts
2026-05-05 17:29 40.11090 11.55875 39020 ft 493 kts
2026-05-05 17:29 40.17804 11.57640 39017 ft 493 kts
2026-05-05 17:30 40.24554 11.59421 39016 ft 493 kts
2026-05-05 17:30 40.31283 11.61198 39021 ft 493 kts
2026-05-05 17:31 40.38023 11.62512 39030 ft 486 kts 360°
2026-05-05 17:31 40.44751 11.62867 39020 ft 481 kts 354°
2026-05-05 17:32 40.51421 11.62607 39021 ft 480 kts 352°
2026-05-05 17:32 40.58057 11.62298 39021 ft 481 kts 352°
2026-05-05 17:33 40.64742 11.61998 39022 ft 481 kts 352°
2026-05-05 17:33 40.71430 11.61707 39025 ft 481 kts 352°
2026-05-05 17:34 40.78149 11.61421 39036 ft 482 kts 352°
2026-05-05 17:34 40.84802 11.61136 39021 ft 483 kts 352°
2026-05-05 17:35 40.91518 11.60848 39019 ft 483 kts 352°
2026-05-05 17:35 40.98266 11.60558 39032 ft 483 kts 352°
2026-05-05 17:36 41.04985 11.60272 39014 ft 483 kts 352°
2026-05-05 17:36 41.11634 11.59985 39010 ft 483 kts 352°
2026-05-05 17:37 41.18345 11.59694 39012 ft 483 kts 352°
2026-05-05 17:37 41.25026 11.59410 39018 ft 481 kts 352°
2026-05-05 17:38 41.31722 11.59118 39013 ft 481 kts 352°
2026-05-05 17:38 41.38389 11.58827 39009 ft 481 kts 352°
2026-05-05 17:39 41.45067 11.58541 39013 ft 481 kts 351°
2026-05-05 17:39 41.51714 11.58249 39011 ft 481 kts 351°
2026-05-05 17:40 41.58401 11.57955 39007 ft 481 kts 351°
2026-05-05 17:40 41.65105 11.57663 39011 ft 482 kts 351°
2026-05-05 17:41 41.71806 11.57369 39007 ft 482 kts 351°
2026-05-05 17:41 41.78434 11.57077 39007 ft 482 kts 351°
2026-05-05 17:42 41.85202 11.56780 39018 ft 483 kts 351°
2026-05-05 17:42 41.88527 11.56632 37969 ft 494 kts 351°
2026-05-05 17:42 41.91963 11.56481 37897 ft 483 kts 351°
2026-05-05 17:42 41.95274 11.56340 38282 ft 481 kts 351°
2026-05-05 17:43 41.98637 11.56460 38454 ft 492 kts
2026-05-05 17:43 42.01961 11.57450 38721 ft 501 kts 12°
2026-05-05 17:43 42.05124 11.59239 38952 ft 508 kts 20°
2026-05-05 17:44 42.11332 11.63712 39023 ft 515 kts 23°
2026-05-05 17:44 42.17495 11.68332 39011 ft 515 kts 24°
2026-05-05 17:45 42.23778 11.72810 38999 ft 505 kts 14°
2026-05-05 17:45 42.27051 11.73977 38997 ft 490 kts 359°
2026-05-05 17:45 42.30371 11.74297 39034 ft 487 kts 355°
2026-05-05 17:46 42.37064 11.74116 39032 ft 481 kts 350°
2026-05-05 17:46 42.43671 11.73609 39045 ft 481 kts 349°
2026-05-05 17:47 42.50354 11.73017 39034 ft 481 kts 349°
2026-05-05 17:47 42.57013 11.72405 39028 ft 481 kts 349°
2026-05-05 17:48 42.63638 11.71790 39037 ft 482 kts 349°
2026-05-05 17:48 42.70308 11.71168 39029 ft 482 kts 349°
2026-05-05 17:49 42.77023 11.70540 39020 ft 482 kts 349°
2026-05-05 17:49 42.83724 11.69913 39033 ft 483 kts 349°
2026-05-05 17:50 42.89282 11.69390 39026 ft 483 kts 349°
2026-05-05 17:50 42.95944 11.68764 39015 ft 483 kts 349°
2026-05-05 17:51 43.02611 11.68136 39013 ft 483 kts 349°
2026-05-05 17:51 43.09268 11.67507 39028 ft 483 kts 349°
2026-05-05 17:52 43.15943 11.66875 39008 ft 484 kts 349°
2026-05-05 17:52 43.22622 11.66239 39007 ft 484 kts 349°
2026-05-05 17:53 43.29316 11.65602 39009 ft 484 kts 349°
2026-05-05 17:53 43.35945 11.64969 39003 ft 485 kts 349°
2026-05-05 17:54 43.42635 11.64330 39002 ft 485 kts 349°
2026-05-05 17:54 43.49254 11.63694 39003 ft 485 kts 349°
2026-05-05 17:55 43.55926 11.62952 39005 ft 484 kts 348°
2026-05-05 17:55 43.62592 11.62134 39008 ft 485 kts 348°
2026-05-05 17:56 43.69311 11.61323 39008 ft 486 kts 348°
2026-05-05 17:56 43.76016 11.60532 38998 ft 485 kts 348°
2026-05-05 17:57 43.82735 11.59740 38989 ft 485 kts 348°
2026-05-05 17:57 43.89447 11.58943 39003 ft 487 kts 349°
2026-05-05 17:58 43.96190 11.58148 39004 ft 487 kts 349°
2026-05-05 17:58 44.02934 11.57352 39027 ft 486 kts 348°
2026-05-05 17:59 44.09613 11.56553 39017 ft 487 kts 349°
2026-05-05 17:59 44.16323 11.55756 39014 ft 487 kts 349°
2026-05-05 18:00 44.23058 11.54955 39020 ft 487 kts 349°
2026-05-05 18:00 44.29796 11.54151 38992 ft 488 kts 349°
2026-05-05 18:01 44.36541 11.53344 38977 ft 488 kts 349°
2026-05-05 18:01 44.43252 11.52536 38968 ft 488 kts 349°
2026-05-05 18:02 44.49996 11.51725 38948 ft 488 kts 349°
2026-05-05 18:02 44.56752 11.50912 38960 ft 488 kts 349°
2026-05-05 18:03 44.63499 11.50095 38966 ft 489 kts 349°
2026-05-05 18:03 44.70309 11.49268 38972 ft 491 kts 349°
2026-05-05 18:04 44.77103 11.48445 38986 ft 491 kts 349°
2026-05-05 18:04 44.83903 11.47614 39007 ft 491 kts 350°
2026-05-05 18:05 44.90691 11.46784 39024 ft 494 kts 350°
2026-05-05 18:05 44.97524 11.45951 39018 ft 495 kts 350°
2026-05-05 18:06 45.04340 11.45111 39018 ft 494 kts 351°
2026-05-05 18:06 45.11141 11.44277 39013 ft 494 kts 351°
2026-05-05 18:07 45.17975 11.43438 39009 ft 494 kts 351°
2026-05-05 18:07 45.24738 11.42600 39011 ft 495 kts 351°
2026-05-05 18:08 45.31574 11.41755 39005 ft 495 kts 351°
2026-05-05 18:08 45.38443 11.40904 39002 ft 495 kts 351°
2026-05-05 18:09 45.45253 11.40056 38999 ft 495 kts 351°
2026-05-05 18:09 45.52078 11.39206 38993 ft 495 kts 351°
2026-05-05 18:10 45.58904 11.38353 38994 ft 495 kts 351°
2026-05-05 18:10 45.65710 11.37499 39001 ft 497 kts 351°
2026-05-05 18:11 45.72567 11.36638 38998 ft 497 kts 351°
2026-05-05 18:11 45.79410 11.35778 39008 ft 497 kts 351°
2026-05-05 18:12 45.86274 11.34913 39010 ft 497 kts 351°
2026-05-05 18:12 45.93048 11.34057 39018 ft 497 kts 351°
2026-05-05 18:13 45.99918 11.33187 39015 ft 497 kts 351°
2026-05-05 18:13 46.03328 11.32756 38897 ft 493 kts 351°
2026-05-05 18:13 46.06706 11.32330 38661 ft 489 kts 351°
2026-05-05 18:13 46.10068 11.31906 38372 ft 486 kts 351°
2026-05-05 18:14 46.13411 11.31483 38090 ft 483 kts 351°
2026-05-05 18:14 46.16711 11.31066 37812 ft 481 kts 351°
2026-05-05 18:14 46.20018 11.30645 37534 ft 480 kts 351°
2026-05-05 18:14 46.23340 11.30220 37268 ft 481 kts 351°
2026-05-05 18:15 46.26684 11.29791 36983 ft 481 kts 351°
2026-05-05 18:15 46.30018 11.29359 36721 ft 482 kts 350°
2026-05-05 18:15 46.33319 11.28932 36461 ft 482 kts 350°
2026-05-05 18:15 46.36577 11.28513 36235 ft 483 kts 350°
2026-05-05 18:16 46.39919 11.28087 35980 ft 485 kts 350°
2026-05-05 18:16 46.43251 11.27657 35685 ft 488 kts 350°
2026-05-05 18:17 46.53314 11.26342 34252 ft 493 kts 350°
2026-05-05 18:17 46.56718 11.25898 33542 ft 495 kts 350°
2026-05-05 18:17 46.60132 11.25453 32848 ft 495 kts 350°
2026-05-05 18:17 46.63554 11.25019 32208 ft 496 kts 352°
2026-05-05 18:18 46.66985 11.24945 31632 ft 500 kts 357°
2026-05-05 18:18 46.70341 11.25118 31100 ft 502 kts 358°
2026-05-05 18:18 46.73810 11.25361 30497 ft 503 kts 358°
2026-05-05 18:18 46.77236 11.25600 29802 ft 503 kts 358°
2026-05-05 18:19 46.80754 11.25819 29029 ft 502 kts 358°
2026-05-05 18:19 46.84204 11.26013 28311 ft 501 kts 358°
2026-05-05 18:19 46.87572 11.26192 27692 ft 499 kts 358°
2026-05-05 18:19 46.91084 11.26371 27240 ft 498 kts 358°
2026-05-05 18:20 46.94478 11.26543 26769 ft 495 kts 358°
2026-05-05 18:20 46.97885 11.26756 26332 ft 490 kts 359°
2026-05-05 18:20 47.01238 11.26994 25773 ft 488 kts 359°
2026-05-05 18:20 47.04653 11.27244 25266 ft 484 kts 359°
2026-05-05 18:21 47.07942 11.27483 24719 ft 480 kts 359°
2026-05-05 18:21 47.11206 11.27720 24220 ft 476 kts 359°
2026-05-05 18:21 47.14473 11.27962 23717 ft 472 kts 359°
2026-05-05 18:21 47.17715 11.28199 23169 ft 469 kts 359°
2026-05-05 18:22 47.20913 11.28432 22641 ft 463 kts 360°
2026-05-05 18:22 47.24023 11.28663 22226 ft 457 kts 359°
2026-05-05 18:22 47.27163 11.28894 21808 ft 451 kts 359°
2026-05-05 18:22 47.30255 11.29118 21396 ft 444 kts 359°
2026-05-05 18:23 47.33302 11.29338 20998 ft 439 kts 359°
2026-05-05 18:23 47.36267 11.29550 20588 ft 434 kts 359°
2026-05-05 18:23 47.39224 11.29763 20179 ft 429 kts 359°
2026-05-05 18:23 47.42240 11.29978 19746 ft 424 kts 359°
2026-05-05 18:24 47.45198 11.30187 19374 ft 421 kts 360°
2026-05-05 18:24 47.48086 11.30399 19009 ft 422 kts
2026-05-05 18:24 47.51050 11.30615 18684 ft 432 kts
2026-05-05 18:24 47.54085 11.30841 18360 ft 431 kts
2026-05-05 18:25 47.57015 11.31057 18039 ft 429 kts
2026-05-05 18:25 47.59015 11.31202 17796 ft 427 kts
2026-05-05 18:25 47.62913 11.31489 17383 ft 424 kts
2026-05-05 18:25 47.65795 11.31700 17045 ft 422 kts
2026-05-05 18:26 47.68718 11.31911 16743 ft 421 kts
2026-05-05 18:26 47.69932 11.31999 16613 ft 420 kts
2026-05-05 18:28 47.70054 11.32008 16605 ft 420 kts
2026-05-05 18:29 47.72323 11.32175 16370 ft 419 kts
2026-05-05 18:29 47.75206 11.32389 16065 ft 417 kts
2026-05-05 18:29 47.78062 11.32600 15754 ft 415 kts
2026-05-05 18:29 47.80938 11.32814 15434 ft 412 kts
2026-05-05 18:30 47.83742 11.33024 15047 ft 410 kts
2026-05-05 18:30 47.86568 11.33235 14831 ft 400 kts
2026-05-05 18:30 47.89270 11.33472 14824 ft 384 kts
2026-05-05 18:30 47.91757 11.34638 14772 ft 371 kts 30°
2026-05-05 18:31 47.93653 11.37059 14277 ft 362 kts 52°
2026-05-05 18:31 47.95112 11.40086 13612 ft 358 kts 56°
2026-05-05 18:31 47.96502 11.43133 12834 ft 356 kts 56°
2026-05-05 18:31 47.97886 11.46101 12158 ft 352 kts 54°
2026-05-05 18:32 47.99309 11.49061 11737 ft 350 kts 54°
2026-05-05 18:32 48.00746 11.51989 11323 ft 347 kts 53°
2026-05-05 18:32 48.02161 11.54840 10964 ft 342 kts 53°
2026-05-05 18:32 48.03576 11.57666 10619 ft 339 kts 53°
2026-05-05 18:33 48.04984 11.60475 10273 ft 336 kts 53°
2026-05-05 18:33 48.06364 11.63227 10012 ft 330 kts 53°
2026-05-05 18:33 48.07707 11.65909 9948 ft 316 kts 53°
2026-05-05 18:33 48.08997 11.68482 9882 ft 304 kts 53°
2026-05-05 18:34 48.10236 11.70960 9782 ft 295 kts 53°
2026-05-05 18:34 48.11469 11.73426 9431 ft 295 kts 53°
2026-05-05 18:34 48.12709 11.75911 9094 ft 294 kts 53°
2026-05-05 18:34 48.13931 11.78361 8796 ft 292 kts 53°
2026-05-05 18:35 48.15137 11.80780 8507 ft 290 kts 53°
2026-05-05 18:35 48.15965 11.82441 8304 ft 288 kts 53°
2026-05-05 18:35 48.17185 11.84891 8015 ft 286 kts 53°
2026-05-05 18:35 48.18378 11.87286 7822 ft 293 kts 53°
2026-05-05 18:36 48.19988 11.90523 7820 ft 286 kts 53°
2026-05-05 18:36 48.20768 11.92094 7812 ft 276 kts 53°
2026-05-05 18:36 48.21878 11.94330 7774 ft 263 kts 53°
2026-05-05 18:36 48.22959 11.96513 7486 ft 259 kts 53°
2026-05-05 18:37 48.24030 11.98679 7086 ft 258 kts 53°
2026-05-05 18:37 48.25059 12.00760 6723 ft 256 kts 52°
2026-05-05 18:37 48.26111 12.02886 6349 ft 254 kts 52°
2026-05-05 18:37 48.27159 12.05010 5949 ft 253 kts 52°
2026-05-05 18:38 48.28175 12.07146 5561 ft 251 kts 53°
2026-05-05 18:38 48.29146 12.09289 5229 ft 249 kts 54°
2026-05-05 18:38 48.30103 12.11432 4921 ft 249 kts 53°
2026-05-05 18:38 48.31104 12.13543 4627 ft 246 kts 40°
2026-05-05 18:39 48.32501 12.14775 4395 ft 235 kts
2026-05-05 18:39 48.34091 12.15005 4169 ft 229 kts 357°
2026-05-05 18:39 48.35640 12.14968 4022 ft 225 kts 354°
2026-05-05 18:39 48.37180 12.14769 4008 ft 223 kts 341°
2026-05-05 18:40 48.38461 12.13568 4008 ft 220 kts 308°
2026-05-05 18:40 48.39048 12.11616 3993 ft 208 kts 275°
2026-05-05 18:40 48.38808 12.09556 4023 ft 205 kts 250°
2026-05-05 18:40 48.38224 12.07619 4042 ft 204 kts 246°
2026-05-05 18:41 48.37590 12.05711 4023 ft 203 kts 246°
2026-05-05 18:41 48.36958 12.03837 4085 ft 204 kts 246°
2026-05-05 18:41 48.36364 12.01890 4109 ft 203 kts 252°
2026-05-05 18:41 48.35984 11.99856 4023 ft 203 kts 260°
2026-05-05 18:42 48.35780 11.97777 3779 ft 201 kts 265°
2026-05-05 18:42 48.35645 11.95721 3511 ft 198 kts 266°
2026-05-05 18:42 48.35505 11.93720 3246 ft 191 kts 266°
2026-05-05 18:42 48.35361 11.91836 3000 ft 179 kts 266°
2026-05-05 18:43 48.35220 11.90043 2761 ft 165 kts 266°
2026-05-05 18:43 48.35091 11.88391 2557 ft 159 kts 265°
2026-05-05 18:43 48.34966 11.86730 2288 ft 158 kts 265°
2026-05-05 18:43 48.34858 11.85101 2150 ft 157 kts 265°
2026-05-05 18:44 48.34727 11.83458 1905 ft 155 kts 262°
2026-05-05 18:44 48.34581 11.81873 1682 ft 154 kts 263°
2026-05-05 18:44 48.34455 11.80283 1519 ft 149 kts 264°
2026-05-05 18:44 48.34355 11.78869 1469 ft 105 kts 264°
2026-05-05 18:45 48.34312 11.78094 1477 ft 52 kts 282°
2026-05-05 18:45 48.34425 11.77634 1465 ft 30 kts 292°
2026-05-05 18:45 48.34438 11.77588 1467 ft 1 kts 293°
2026-05-05 18:45 48.34441 11.77576 1468 ft 0 kts 293°
2026-05-05 18:46 48.34444 11.77567 1466 ft 2 kts 293°
2026-05-05 18:46 48.34479 11.77474 1470 ft 16 kts 313°
2026-05-05 18:46 48.34594 11.77431 1468 ft 17 kts 18°
2026-05-05 18:47 48.34640 11.77599 1471 ft 20 kts 81°
2026-05-05 18:47 48.34655 11.77805 1470 ft 22 kts 84°
2026-05-05 18:47 48.34672 11.78039 1475 ft 24 kts 83°
2026-05-05 18:47 48.34694 11.78325 1469 ft 26 kts 83°
2026-05-05 18:48 48.34716 11.78605 1472 ft 28 kts 83°
2026-05-05 18:48 48.34739 11.78911 1469 ft 29 kts 83°
2026-05-05 18:48 48.34764 11.79230 1475 ft 28 kts 83°
2026-05-05 18:48 48.34783 11.79468 1465 ft 16 kts 83°
2026-05-05 18:49 48.34821 11.79553 1470 ft 10 kts 12°
2026-05-05 18:49 48.34893 11.79551 1469 ft 4 kts 354°
2026-05-05 18:50 48.34901 11.79550 1470 ft 4 kts 354°
2026-05-05 18:50 48.34943 11.79544 1471 ft 7 kts 354°
2026-05-05 18:51 48.35006 11.79533 1469 ft 11 kts 353°
2026-05-05 18:51 48.35096 11.79517 1466 ft 13 kts 353°
2026-05-05 18:51 48.35193 11.79497 1465 ft 4 kts 334°
2026-05-05 18:51 48.35214 11.79442 1465 ft 7 kts 271°
2026-05-05 18:52 48.35207 11.79357 1469 ft 0 kts 263°
2026-05-05 18:52 48.35207 11.79353 1469 ft 2 kts 264°
2026-05-05 18:52 48.35206 11.79344 1472 ft 1 kts 264°
2026-05-05 18:52 48.35206 11.79343 1472 ft 0 kts 264°